Time,TemperatureF,DewpointF,PressureIn,WindDirection,WindDirectionDegrees,WindSpeedMPH,WindSpeedGustMPH,Humidity,HourlyPrecipIn,Conditions,Clouds,dailyrainin,SoftwareType,DateUTC
2013-02-07 00:00:00,27.5,-38.6,30.23,NW,313,6.0,8.0,4,0.00,,---,0.02,VWS V14.01,2013-02-07 05:00:00,
2013-02-07 00:05:00,27.3,-38.7,30.23,NW,318,3.0,7.0,4,0.00,,---,0.00,VWS V14.01,2013-02-07 05:05:00,
2013-02-07 00:10:00,27.2,-38.8,30.23,North,0,6.0,8.0,4,0.00,,---,0.00,VWS V14.01,2013-02-07 05:10:00,
2013-02-07 00:11:00,27.2,-38.8,30.23,NW,316,6.0,8.0,4,0.00,,---,0.00,VWS V14.01,2013-02-07 05:11:00,
2013-02-07 00:15:00,27.2,-38.8,30.22,NW,319,7.0,8.0,4,0.00,,---,0.00,VWS V14.01,2013-02-07 05:15:00,
2013-02-07 00:16:00,27.0,-38.9,30.22,NW,318,8.0,8.0,4,0.00,,---,0.00,VWS V14.01,2013-02-07 05:16:00,
2013-02-07 00:20:00,27.0,-38.9,30.22,NW,326,3.0,12.0,4,0.00,,---,0.00,VWS V14.01,2013-02-07 05:20:00,
2013-02-07 00:21:00,27.0,-38.9,30.22,NNW,335,3.0,12.0,4,0.00,,---,0.00,VWS V14.01,2013-02-07 05:21:00,
2013-02-07 00:25:00,27.0,-38.9,30.22,NNW,329,2.0,12.0,4,0.00,,---,0.00,VWS V14.01,2013-02-07 05:25:00,
2013-02-07 00:26:00,27.0,-38.9,30.22,NW,322,5.0,12.0,4,0.00,,---,0.00,VWS V14.01,2013-02-07 05:26:00,
2013-02-07 00:30:00,26.9,-39.0,30.22,NW,326,5.0,12.0,4,0.00,,---,0.00,VWS V14.01,2013-02-07 05:30:00,
2013-02-07 00:31:00,26.9,-39.0,30.22,NNW,344,3.0,6.0,4,0.00,,---,0.00,VWS V14.01,2013-02-07 05:31:00,
2013-02-07 00:35:00,26.7,-35.2,30.22,NNW,329,5.0,8.0,5,0.00,,---,0.00,VWS V14.01,2013-02-07 05:35:00,
2013-02-07 00:36:00,26.7,-39.2,30.22,NW,325,5.0,8.0,4,0.00,,---,0.00,VWS V14.01,2013-02-07 05:36:00,
2013-02-07 00:40:00,26.7,-35.2,30.22,NNW,330,1.0,8.0,5,0.00,,---,0.00,VWS V14.01,2013-02-07 05:40:00,
2013-02-07 00:41:00,26.7,-35.2,30.22,NNW,330,0.0,8.0,5,0.00,,---,0.00,VWS V14.01,2013-02-07 05:41:00,
2013-02-07 00:45:00,26.6,-35.3,30.23,WNW,289,2.0,8.0,5,0.00,,---,0.00,VWS V14.01,2013-02-07 05:45:00,
2013-02-07 00:46:00,26.6,-35.3,30.23,WNW,301,5.0,5.0,5,0.00,,---,0.00,VWS V14.01,2013-02-07 05:46:00,
2013-02-07 00:50:00,26.4,-35.5,30.23,NW,313,3.0,7.0,5,0.00,,---,0.00,VWS V14.01,2013-02-07 05:50:00,
2013-02-07 00:51:00,26.4,-35.5,30.23,NW,313,2.0,7.0,5,0.00,,---,0.00,VWS V14.01,2013-02-07 05:51:00,
2013-02-07 00:55:00,26.4,-35.5,30.23,West,275,5.0,7.0,5,0.00,,---,0.00,VWS V14.01,2013-02-07 05:55:00,
2013-02-07 00:56:00,26.4,-35.5,30.23,NNW,335,4.0,7.0,5,0.00,,---,0.00,VWS V14.01,2013-02-07 05:56:00,
2013-02-07 01:01:00,26.3,-32.3,30.24,West,277,2.0,3.0,6,0.00,,---,0.00,VWS V14.01,2013-02-07 06:01:00,
2013-02-07 01:06:00,26.1,-35.7,30.24,WNW,299,6.0,6.0,5,0.00,,---,0.00,VWS V14.01,2013-02-07 06:06:00,
2013-02-07 01:11:00,26.1,-35.7,30.24,WNW,294,2.0,6.0,5,0.00,,---,0.00,VWS V14.01,2013-02-07 06:11:00,
2013-02-07 01:16:00,25.8,-32.7,30.23,NNW,335,3.0,4.0,6,0.00,,---,0.00,VWS V14.01,2013-02-07 06:16:00,
2013-02-07 01:17:00,25.8,-32.7,30.23,NNW,335,2.0,4.0,6,0.00,,---,0.00,VWS V14.01,2013-02-07 06:17:00,
2013-02-07 01:21:00,25.8,-35.9,30.23,NNW,347,4.0,8.0,5,0.00,,---,0.00,VWS V14.01,2013-02-07 06:21:00,
2013-02-07 01:22:00,25.8,-35.9,30.23,NW,306,5.0,8.0,5,0.00,,---,0.00,VWS V14.01,2013-02-07 06:22:00,
2013-02-07 01:26:00,25.7,-36.0,30.23,North,349,3.0,8.0,5,0.00,,---,0.00,VWS V14.01,2013-02-07 06:26:00,
2013-02-07 01:27:00,25.7,-36.0,30.23,WNW,288,5.0,8.0,5,0.00,,---,0.00,VWS V14.01,2013-02-07 06:27:00,
2013-02-07 01:31:00,25.7,-36.0,30.24,NNW,347,2.0,5.0,5,0.00,,---,0.00,VWS V14.01,2013-02-07 06:31:00,
2013-02-07 01:32:00,25.7,-36.0,30.24,NW,319,3.0,5.0,5,0.00,,---,0.00,VWS V14.01,2013-02-07 06:32:00,
2013-02-07 01:36:00,25.6,-36.1,30.24,WNW,289,1.0,5.0,5,0.00,,---,0.00,VWS V14.01,2013-02-07 06:36:00,
2013-02-07 01:37:00,25.6,-36.1,30.24,WNW,291,4.0,5.0,5,0.00,,---,0.00,VWS V14.01,2013-02-07 06:37:00,
2013-02-07 01:38:00,25.4,-33.0,30.24,West,280,0.0,6.0,6,0.00,,---,0.00,VWS V14.01,2013-02-07 06:38:00,
2013-02-07 01:41:00,25.3,-33.0,30.24,WNW,282,1.0,6.0,6,0.00,,---,0.00,VWS V14.01,2013-02-07 06:41:00,
2013-02-07 01:42:00,25.3,-33.0,30.24,West,264,2.0,6.0,6,0.00,,---,0.00,VWS V14.01,2013-02-07 06:42:00,
2013-02-07 01:43:00,25.3,-33.0,30.24,West,260,5.0,6.0,6,0.00,,---,0.00,VWS V14.01,2013-02-07 06:43:00,
2013-02-07 01:47:00,25.1,-30.4,30.25,West,275,2.0,2.0,7,0.00,,---,0.00,VWS V14.01,2013-02-07 06:47:00,
2013-02-07 01:48:00,25.1,-30.4,30.25,West,275,1.0,2.0,7,0.00,,---,0.00,VWS V14.01,2013-02-07 06:48:00,
2013-02-07 01:52:00,25.1,-30.4,30.25,West,278,3.0,6.0,7,0.00,,---,0.00,VWS V14.01,2013-02-07 06:52:00,
2013-02-07 01:53:00,25.1,-30.4,30.25,WNW,295,2.0,6.0,7,0.00,,---,0.00,VWS V14.01,2013-02-07 06:53:00,
2013-02-07 01:57:00,25.0,-28.0,30.25,WNW,289,1.0,6.0,8,0.00,,---,0.00,VWS V14.01,2013-02-07 06:57:00,
2013-02-07 01:58:00,24.8,-28.2,30.25,WNW,292,2.0,6.0,8,0.00,,---,0.00,VWS V14.01,2013-02-07 06:58:00,
2013-02-07 02:02:00,24.8,-28.2,30.27,WNW,282,7.0,7.0,8,0.00,,---,0.00,VWS V14.01,2013-02-07 07:02:00,
2013-02-07 02:03:00,24.7,-26.1,30.27,WNW,284,5.0,7.0,9,0.00,,---,0.00,VWS V14.01,2013-02-07 07:03:00,
2013-02-07 02:07:00,24.7,-26.1,30.27,WNW,282,0.0,7.0,9,0.00,,---,0.00,VWS V14.01,2013-02-07 07:07:00,
2013-02-07 02:08:00,24.7,-26.1,30.27,WNW,282,0.0,7.0,9,0.00,,---,0.00,VWS V14.01,2013-02-07 07:08:00,
2013-02-07 02:12:00,24.5,-26.3,30.27,WNW,284,0.0,7.0,9,0.00,,---,0.00,VWS V14.01,2013-02-07 07:12:00,
2013-02-07 02:13:00,24.5,-26.3,30.27,WNW,284,2.0,7.0,9,0.00,,---,0.00,VWS V14.01,2013-02-07 07:13:00,
2013-02-07 02:17:00,24.4,-26.3,30.27,West,277,3.0,6.0,9,0.00,,---,0.00,VWS V14.01,2013-02-07 07:17:00,
2013-02-07 02:18:00,24.4,-26.3,30.27,West,272,5.0,8.0,9,0.00,,---,0.00,VWS V14.01,2013-02-07 07:18:00,
2013-02-07 02:22:00,24.5,-24.3,30.27,WNW,289,3.0,8.0,10,0.00,,---,0.00,VWS V14.01,2013-02-07 07:22:00,
2013-02-07 02:23:00,24.4,-26.3,30.27,WNW,289,1.0,8.0,9,0.00,,---,0.00,VWS V14.01,2013-02-07 07:23:00,
2013-02-07 02:24:00,24.4,-24.4,30.27,WNW,285,5.0,8.0,10,0.00,,---,0.00,VWS V14.01,2013-02-07 07:24:00,
2013-02-07 02:27:00,24.2,-24.5,30.27,West,277,3.0,8.0,10,0.00,,---,0.00,VWS V14.01,2013-02-07 07:27:00,
2013-02-07 02:28:00,24.2,-24.5,30.27,West,278,1.0,8.0,10,0.00,,---,0.00,VWS V14.01,2013-02-07 07:28:00,
2013-02-07 02:29:00,24.2,-24.5,30.27,West,278,1.0,8.0,10,0.00,,---,0.00,VWS V14.01,2013-02-07 07:29:00,
2013-02-07 02:32:00,24.1,-24.6,30.28,West,278,2.0,6.0,10,0.00,,---,0.00,VWS V14.01,2013-02-07 07:32:00,
2013-02-07 02:33:00,24.1,-22.8,30.28,West,278,0.0,6.0,11,0.00,,---,0.00,VWS V14.01,2013-02-07 07:33:00,
2013-02-07 02:34:00,24.1,-22.8,30.28,West,278,0.0,6.0,11,0.00,,---,0.00,VWS V14.01,2013-02-07 07:34:00,
2013-02-07 02:37:00,23.9,-23.0,30.28,West,278,1.0,6.0,11,0.00,,---,0.00,VWS V14.01,2013-02-07 07:37:00,
2013-02-07 02:38:00,23.9,-23.0,30.28,West,278,0.0,6.0,11,0.00,,---,0.00,VWS V14.01,2013-02-07 07:38:00,
2013-02-07 02:39:00,23.9,-23.0,30.28,West,280,1.0,6.0,11,0.00,,---,0.00,VWS V14.01,2013-02-07 07:39:00,
2013-02-07 02:42:00,23.8,-23.0,30.28,West,278,0.0,6.0,11,0.00,,---,0.00,VWS V14.01,2013-02-07 07:42:00,
2013-02-07 02:43:00,23.8,-23.0,30.28,West,278,0.0,6.0,11,0.00,,---,0.00,VWS V14.01,2013-02-07 07:43:00,
2013-02-07 02:44:00,23.8,-21.4,30.28,West,278,1.0,6.0,12,0.00,,---,0.00,VWS V14.01,2013-02-07 07:44:00,
2013-02-07 02:48:00,23.6,-21.6,30.28,West,278,0.0,2.0,12,0.00,,---,0.00,VWS V14.01,2013-02-07 07:48:00,
2013-02-07 02:49:00,23.6,-21.6,30.28,West,278,0.0,3.0,12,0.00,,---,0.00,VWS V14.01,2013-02-07 07:49:00,
2013-02-07 02:53:00,23.6,-21.6,30.28,West,278,0.0,3.0,12,0.00,,---,0.00,VWS V14.01,2013-02-07 07:53:00,
2013-02-07 02:54:00,23.6,-21.6,30.28,West,278,0.0,3.0,12,0.00,,---,0.00,VWS V14.01,2013-02-07 07:54:00,
2013-02-07 02:58:00,23.5,-21.6,30.28,West,280,0.0,3.0,12,0.00,,---,0.00,VWS V14.01,2013-02-07 07:58:00,
2013-02-07 02:59:00,23.5,-21.6,30.28,West,278,0.0,3.0,12,0.00,,---,0.00,VWS V14.01,2013-02-07 07:59:00,
2013-02-07 03:03:00,23.3,-20.3,30.28,West,278,0.0,0.0,13,0.00,,---,0.00,VWS V14.01,2013-02-07 08:03:00,
2013-02-07 03:04:00,23.3,-20.3,30.28,West,278,0.0,0.0,13,0.00,,---,0.00,VWS V14.01,2013-02-07 08:04:00,
2013-02-07 03:08:00,23.2,-20.4,30.28,West,278,0.0,0.0,13,0.00,,---,0.00,VWS V14.01,2013-02-07 08:08:00,
2013-02-07 03:09:00,23.2,-20.4,30.28,West,278,0.0,0.0,13,0.00,,---,0.00,VWS V14.01,2013-02-07 08:09:00,
2013-02-07 03:13:00,23.0,-19.1,30.28,West,278,0.0,0.0,14,0.00,,---,0.00,VWS V14.01,2013-02-07 08:13:00,
2013-02-07 03:14:00,22.9,-19.2,30.28,West,278,0.0,0.0,14,0.00,,---,0.00,VWS V14.01,2013-02-07 08:14:00,
2013-02-07 03:18:00,22.7,-19.3,30.28,West,278,0.0,0.0,14,0.00,,---,0.00,VWS V14.01,2013-02-07 08:18:00,
2013-02-07 03:19:00,22.7,-19.3,30.28,West,278,0.0,0.0,14,0.00,,---,0.00,VWS V14.01,2013-02-07 08:19:00,
2013-02-07 03:23:00,22.5,-19.5,30.28,West,278,0.0,0.0,14,0.00,,---,0.00,VWS V14.01,2013-02-07 08:23:00,
2013-02-07 03:24:00,22.5,-19.5,30.28,West,278,0.0,0.0,14,0.00,,---,0.00,VWS V14.01,2013-02-07 08:24:00,
2013-02-07 03:25:00,22.5,-19.5,30.28,West,278,0.0,0.0,14,0.00,,---,0.00,VWS V14.01,2013-02-07 08:25:00,
2013-02-07 03:28:00,22.4,-19.6,30.28,West,278,0.0,0.0,14,0.00,,---,0.00,VWS V14.01,2013-02-07 08:28:00,
2013-02-07 03:29:00,22.4,-19.6,30.28,West,278,0.0,0.0,14,0.00,,---,0.00,VWS V14.01,2013-02-07 08:29:00,
2013-02-07 03:30:00,22.4,-19.6,30.29,West,278,0.0,0.0,14,0.00,,---,0.00,VWS V14.01,2013-02-07 08:30:00,
2013-02-07 03:33:00,22.2,-19.7,30.29,West,278,0.0,0.0,14,0.00,,---,0.00,VWS V14.01,2013-02-07 08:33:00,
2013-02-07 03:34:00,22.2,-19.7,30.29,West,278,0.0,0.0,14,0.00,,---,0.00,VWS V14.01,2013-02-07 08:34:00,
2013-02-07 03:35:00,22.2,-19.7,30.29,West,278,0.0,0.0,14,0.00,,---,0.00,VWS V14.01,2013-02-07 08:35:00,
2013-02-07 03:39:00,22.1,-18.5,30.29,West,278,0.0,0.0,15,0.00,,---,0.00,VWS V14.01,2013-02-07 08:39:00,
2013-02-07 03:40:00,21.9,-18.6,30.29,West,278,0.0,0.0,15,0.00,,---,0.00,VWS V14.01,2013-02-07 08:40:00,
2013-02-07 03:44:00,21.9,-20.0,30.29,West,278,0.0,0.0,14,0.00,,---,0.00,VWS V14.01,2013-02-07 08:44:00,
2013-02-07 03:45:00,21.8,-20.1,30.28,West,278,0.0,0.0,14,0.00,,---,0.00,VWS V14.01,2013-02-07 08:45:00,
2013-02-07 03:49:00,21.8,-20.1,30.28,West,278,0.0,0.0,14,0.00,,---,0.00,VWS V14.01,2013-02-07 08:49:00,
2013-02-07 03:50:00,21.8,-20.1,30.28,West,278,0.0,0.0,14,0.00,,---,0.00,VWS V14.01,2013-02-07 08:50:00,
2013-02-07 03:54:00,21.8,-20.1,30.28,West,278,0.0,0.0,14,0.00,,---,0.00,VWS V14.01,2013-02-07 08:54:00,
2013-02-07 03:55:00,21.8,-20.1,30.28,West,278,0.0,0.0,14,0.00,,---,0.00,VWS V14.01,2013-02-07 08:55:00,
2013-02-07 03:59:00,21.6,-18.9,30.28,West,278,0.0,0.0,15,0.00,,---,0.00,VWS V14.01,2013-02-07 08:59:00,
2013-02-07 04:00:00,21.6,-18.9,30.30,West,278,0.0,0.0,15,0.00,,---,0.00,VWS V14.01,2013-02-07 09:00:00,
2013-02-07 04:04:00,21.3,-16.7,30.30,West,278,0.0,0.0,17,0.00,,---,0.00,VWS V14.01,2013-02-07 09:04:00,
2013-02-07 04:05:00,21.3,-15.6,30.30,West,278,0.0,0.0,18,0.00,,---,0.00,VWS V14.01,2013-02-07 09:05:00,
2013-02-07 04:09:00,21.0,-14.8,30.30,West,278,0.0,0.0,19,0.00,,---,0.00,VWS V14.01,2013-02-07 09:09:00,
2013-02-07 04:10:00,21.0,-13.8,30.30,West,278,0.0,0.0,20,0.00,,---,0.00,VWS V14.01,2013-02-07 09:10:00,
2013-02-07 04:11:00,21.0,-13.8,30.30,West,278,0.0,0.0,20,0.00,,---,0.00,VWS V14.01,2013-02-07 09:11:00,
2013-02-07 04:14:00,20.6,-15.1,30.30,West,280,0.0,2.0,19,0.00,,---,0.00,VWS V14.01,2013-02-07 09:14:00,
2013-02-07 04:15:00,20.8,-14.9,30.30,West,280,0.0,2.0,19,0.00,,---,0.00,VWS V14.01,2013-02-07 09:15:00,
2013-02-07 04:16:00,20.8,-16.0,30.30,West,280,0.0,0.0,18,0.00,,---,0.00,VWS V14.01,2013-02-07 09:16:00,
2013-02-07 04:19:00,20.8,-16.0,30.30,West,278,0.0,0.0,18,0.00,,---,0.00,VWS V14.01,2013-02-07 09:19:00,
2013-02-07 04:20:00,20.8,-16.0,30.30,West,278,0.0,0.0,18,0.00,,---,0.00,VWS V14.01,2013-02-07 09:20:00,
2013-02-07 04:21:00,20.8,-14.9,30.30,West,278,0.0,0.0,19,0.00,,---,0.00,VWS V14.01,2013-02-07 09:21:00,
2013-02-07 04:24:00,20.8,-16.0,30.30,West,280,0.0,0.0,18,0.00,,---,0.00,VWS V14.01,2013-02-07 09:24:00,
2013-02-07 04:25:00,20.8,-16.0,30.30,West,278,0.0,0.0,18,0.00,,---,0.00,VWS V14.01,2013-02-07 09:25:00,
2013-02-07 04:26:00,20.8,-16.0,30.30,West,278,0.0,0.0,18,0.00,,---,0.00,VWS V14.01,2013-02-07 09:26:00,
2013-02-07 04:29:00,20.8,-14.9,30.30,West,278,0.0,0.0,19,0.00,,---,0.00,VWS V14.01,2013-02-07 09:29:00,
2013-02-07 04:30:00,20.8,-16.0,30.31,West,278,0.0,0.0,18,0.00,,---,0.00,VWS V14.01,2013-02-07 09:30:00,
2013-02-07 04:31:00,20.6,-16.2,30.31,West,278,0.0,0.0,18,0.00,,---,0.00,VWS V14.01,2013-02-07 09:31:00,
2013-02-07 04:34:00,20.6,-16.2,30.31,West,280,0.0,0.0,18,0.00,,---,0.00,VWS V14.01,2013-02-07 09:34:00,
2013-02-07 04:35:00,20.6,-16.2,30.31,West,278,0.0,0.0,18,0.00,,---,0.00,VWS V14.01,2013-02-07 09:35:00,
2013-02-07 04:36:00,20.6,-16.2,30.31,West,278,0.0,0.0,18,0.00,,---,0.00,VWS V14.01,2013-02-07 09:36:00,
2013-02-07 04:39:00,20.6,-16.2,30.31,West,278,0.0,1.0,18,0.00,,---,0.00,VWS V14.01,2013-02-07 09:39:00,
2013-02-07 04:40:00,20.6,-16.2,30.31,West,278,0.0,1.0,18,0.00,,---,0.00,VWS V14.01,2013-02-07 09:40:00,
2013-02-07 04:41:00,20.6,-16.2,30.31,West,278,0.0,1.0,18,0.00,,---,0.00,VWS V14.01,2013-02-07 09:41:00,
2013-02-07 04:44:00,20.5,-15.2,30.31,West,278,0.0,1.0,19,0.00,,---,0.00,VWS V14.01,2013-02-07 09:44:00,
2013-02-07 04:45:00,20.5,-15.2,30.31,West,278,0.0,1.0,19,0.00,,---,0.00,VWS V14.01,2013-02-07 09:45:00,
2013-02-07 04:47:00,20.5,-15.2,30.31,West,278,0.0,0.0,19,0.00,,---,0.00,VWS V14.01,2013-02-07 09:47:00,
2013-02-07 04:50:00,20.5,-15.2,30.31,West,278,0.0,0.0,19,0.00,,---,0.00,VWS V14.01,2013-02-07 09:50:00,
2013-02-07 04:51:00,20.5,-15.2,30.31,West,278,0.0,0.0,19,0.00,,---,0.00,VWS V14.01,2013-02-07 09:51:00,
2013-02-07 04:52:00,20.5,-13.2,30.31,West,278,0.0,0.0,21,0.00,,---,0.00,VWS V14.01,2013-02-07 09:52:00,
2013-02-07 04:55:00,20.2,-13.5,30.31,West,278,0.0,0.0,21,0.00,,---,0.00,VWS V14.01,2013-02-07 09:55:00,
2013-02-07 04:56:00,20.2,-12.6,30.31,West,278,0.0,0.0,22,0.00,,---,0.00,VWS V14.01,2013-02-07 09:56:00,
2013-02-07 04:57:00,20.0,-13.6,30.31,West,278,0.0,0.0,21,0.00,,---,0.00,VWS V14.01,2013-02-07 09:57:00,
2013-02-07 05:00:00,19.9,-11.1,30.31,West,280,0.0,0.0,24,0.00,,---,0.00,VWS V14.01,2013-02-07 10:00:00,
2013-02-07 05:01:00,19.7,-10.4,30.31,West,280,0.0,0.0,25,0.00,,---,0.00,VWS V14.01,2013-02-07 10:01:00,
2013-02-07 05:02:00,19.5,-9.0,30.31,West,278,0.0,0.0,27,0.00,,---,0.00,VWS V14.01,2013-02-07 10:02:00,
2013-02-07 05:05:00,19.2,-8.6,30.31,West,278,0.0,0.0,28,0.00,,---,0.00,VWS V14.01,2013-02-07 10:05:00,
2013-02-07 05:06:00,19.2,-9.3,30.31,West,278,0.0,0.0,27,0.00,,---,0.00,VWS V14.01,2013-02-07 10:06:00,
2013-02-07 05:08:00,19.1,-8.6,30.31,West,278,0.0,0.0,28,0.00,,---,0.00,VWS V14.01,2013-02-07 10:08:00,
2013-02-07 05:10:00,18.9,-8.1,30.31,West,278,0.0,0.0,29,0.00,,---,0.00,VWS V14.01,2013-02-07 10:10:00,
2013-02-07 05:11:00,18.9,-7.4,30.31,West,278,0.0,0.0,30,0.00,,---,0.00,VWS V14.01,2013-02-07 10:11:00,
2013-02-07 05:13:00,18.8,-7.5,30.31,West,278,0.0,0.0,30,0.00,,---,0.00,VWS V14.01,2013-02-07 10:13:00,
2013-02-07 05:15:00,18.8,-8.9,30.32,West,278,0.0,0.0,28,0.00,,---,0.00,VWS V14.01,2013-02-07 10:15:00,
2013-02-07 05:16:00,18.8,-8.9,30.32,West,278,0.0,0.0,28,0.00,,---,0.00,VWS V14.01,2013-02-07 10:16:00,
2013-02-07 05:18:00,18.8,-9.6,30.32,West,278,0.0,0.0,27,0.00,,---,0.00,VWS V14.01,2013-02-07 10:18:00,
2013-02-07 05:20:00,18.8,-10.4,30.32,West,278,0.0,0.0,26,0.00,,---,0.00,VWS V14.01,2013-02-07 10:20:00,
2013-02-07 05:21:00,18.8,-9.6,30.32,West,278,0.0,0.0,27,0.00,,---,0.00,VWS V14.01,2013-02-07 10:21:00,
2013-02-07 05:23:00,18.8,-9.6,30.32,West,278,0.0,0.0,27,0.00,,---,0.00,VWS V14.01,2013-02-07 10:23:00,
2013-02-07 05:25:00,18.8,-8.9,30.32,West,278,0.0,0.0,28,0.00,,---,0.00,VWS V14.01,2013-02-07 10:25:00,
2013-02-07 05:26:00,18.8,-8.9,30.32,West,278,0.0,0.0,28,0.00,,---,0.00,VWS V14.01,2013-02-07 10:26:00,
2013-02-07 05:27:00,18.8,-9.6,30.32,West,278,0.0,0.0,27,0.00,,---,0.00,VWS V14.01,2013-02-07 10:27:00,
2013-02-07 05:28:00,18.8,-9.6,30.32,West,278,0.0,0.0,27,0.00,,---,0.00,VWS V14.01,2013-02-07 10:28:00,
2013-02-07 05:30:00,18.8,-9.6,30.32,West,278,0.0,0.0,27,0.00,,---,0.00,VWS V14.01,2013-02-07 10:30:00,
2013-02-07 05:31:00,18.8,-9.6,30.32,West,280,0.0,0.0,27,0.00,,---,0.00,VWS V14.01,2013-02-07 10:31:00,
2013-02-07 05:32:00,18.8,-9.6,30.32,West,280,0.0,0.0,27,0.00,,---,0.00,VWS V14.01,2013-02-07 10:32:00,
2013-02-07 05:33:00,18.8,-9.6,30.32,West,280,0.0,0.0,27,0.00,,---,0.00,VWS V14.01,2013-02-07 10:33:00,
2013-02-07 05:35:00,18.8,-9.6,30.32,West,278,0.0,0.0,27,0.00,,---,0.00,VWS V14.01,2013-02-07 10:35:00,
2013-02-07 05:36:00,18.8,-9.6,30.32,West,278,0.0,0.0,27,0.00,,---,0.00,VWS V14.01,2013-02-07 10:36:00,
2013-02-07 05:37:00,18.8,-9.6,30.32,West,278,0.0,0.0,27,0.00,,---,0.00,VWS V14.01,2013-02-07 10:37:00,
2013-02-07 05:38:00,18.8,-9.6,30.32,West,278,0.0,0.0,27,0.00,,---,0.00,VWS V14.01,2013-02-07 10:38:00,
2013-02-07 05:40:00,18.8,-10.4,30.32,West,278,0.0,0.0,26,0.00,,---,0.00,VWS V14.01,2013-02-07 10:40:00,
2013-02-07 05:41:00,18.8,-10.4,30.32,West,278,0.0,0.0,26,0.00,,---,0.00,VWS V14.01,2013-02-07 10:41:00,
2013-02-07 05:42:00,18.8,-10.4,30.32,West,278,0.0,0.0,26,0.00,,---,0.00,VWS V14.01,2013-02-07 10:42:00,
2013-02-07 05:43:00,18.8,-9.6,30.32,West,278,0.0,0.0,27,0.00,,---,0.00,VWS V14.01,2013-02-07 10:43:00,
2013-02-07 05:45:00,18.8,-10.4,30.33,West,278,0.0,0.0,26,0.00,,---,0.00,VWS V14.01,2013-02-07 10:45:00,
2013-02-07 05:46:00,18.8,-10.4,30.33,West,278,0.0,0.0,26,0.00,,---,0.00,VWS V14.01,2013-02-07 10:46:00,
2013-02-07 05:47:00,18.8,-10.4,30.33,West,278,0.0,0.0,26,0.00,,---,0.00,VWS V14.01,2013-02-07 10:47:00,
2013-02-07 05:48:00,18.8,-10.4,30.33,West,278,0.0,0.0,26,0.00,,---,0.00,VWS V14.01,2013-02-07 10:48:00,
2013-02-07 05:50:00,18.8,-10.4,30.33,West,278,0.0,0.0,26,0.00,,---,0.00,VWS V14.01,2013-02-07 10:50:00,
2013-02-07 05:51:00,18.8,-10.4,30.33,West,278,0.0,0.0,26,0.00,,---,0.00,VWS V14.01,2013-02-07 10:51:00,
2013-02-07 05:52:00,18.8,-9.6,30.33,West,278,0.0,0.0,27,0.00,,---,0.00,VWS V14.01,2013-02-07 10:52:00,
2013-02-07 05:54:00,18.8,-9.6,30.33,West,278,0.0,0.0,27,0.00,,---,0.00,VWS V14.01,2013-02-07 10:54:00,
2013-02-07 05:55:00,18.8,-9.6,30.33,West,278,0.0,0.0,27,0.00,,---,0.00,VWS V14.01,2013-02-07 10:55:00,
2013-02-07 05:56:00,18.8,-9.6,30.33,West,278,0.0,0.0,27,0.00,,---,0.00,VWS V14.01,2013-02-07 10:56:00,
2013-02-07 05:57:00,18.8,-9.6,30.33,West,278,0.0,0.0,27,0.00,,---,0.00,VWS V14.01,2013-02-07 10:57:00,
2013-02-07 05:59:00,18.8,-11.2,30.33,West,278,0.0,0.0,25,0.00,,---,0.00,VWS V14.01,2013-02-07 10:59:00,
2013-02-07 06:00:00,18.9,-11.9,30.33,West,280,0.0,0.0,24,0.00,,---,0.00,VWS V14.01,2013-02-07 11:00:00,
2013-02-07 06:01:00,18.9,-11.9,30.33,West,278,0.0,0.0,24,0.00,,---,0.00,VWS V14.01,2013-02-07 11:01:00,
2013-02-07 06:02:00,18.9,-11.9,30.33,West,280,0.0,0.0,24,0.00,,---,0.00,VWS V14.01,2013-02-07 11:02:00,
2013-02-07 06:04:00,18.9,-11.9,30.33,West,278,0.0,0.0,24,0.00,,---,0.00,VWS V14.01,2013-02-07 11:04:00,
2013-02-07 06:06:00,18.9,-11.9,30.33,West,278,0.0,0.0,24,0.00,,---,0.00,VWS V14.01,2013-02-07 11:06:00,
2013-02-07 06:07:00,19.1,-11.8,30.33,West,278,0.0,0.0,24,0.00,,---,0.00,VWS V14.01,2013-02-07 11:07:00,
2013-02-07 06:09:00,19.1,-12.6,30.33,West,280,0.0,1.0,23,0.00,,---,0.00,VWS V14.01,2013-02-07 11:09:00,
2013-02-07 06:11:00,19.2,-12.5,30.33,West,278,0.0,1.0,23,0.00,,---,0.00,VWS V14.01,2013-02-07 11:11:00,
2013-02-07 06:12:00,19.2,-12.5,30.33,West,278,0.0,1.0,23,0.00,,---,0.00,VWS V14.01,2013-02-07 11:12:00,
2013-02-07 06:14:00,19.2,-12.5,30.33,West,278,0.0,1.0,23,0.00,,---,0.00,VWS V14.01,2013-02-07 11:14:00,
2013-02-07 06:16:00,19.2,-12.5,30.33,West,278,0.0,1.0,23,0.00,,---,0.00,VWS V14.01,2013-02-07 11:16:00,
2013-02-07 06:17:00,19.2,-12.5,30.33,West,278,0.0,0.0,23,0.00,,---,0.00,VWS V14.01,2013-02-07 11:17:00,
2013-02-07 06:19:00,19.2,-12.5,30.33,West,278,0.0,0.0,23,0.00,,---,0.00,VWS V14.01,2013-02-07 11:19:00,
2013-02-07 06:21:00,19.1,-10.1,30.33,West,278,0.0,0.0,26,0.00,,---,0.00,VWS V14.01,2013-02-07 11:21:00,
2013-02-07 06:22:00,18.9,-8.8,30.33,West,278,0.0,0.0,28,0.00,,---,0.00,VWS V14.01,2013-02-07 11:22:00,
2013-02-07 06:24:00,18.6,-7.0,30.33,West,278,0.0,0.0,31,0.00,,---,0.00,VWS V14.01,2013-02-07 11:24:00,
2013-02-07 06:26:00,18.4,-7.2,30.33,West,278,0.0,0.0,31,0.00,,---,0.00,VWS V14.01,2013-02-07 11:26:00,
2013-02-07 06:27:00,18.4,-6.5,30.33,West,278,0.0,0.0,32,0.00,,---,0.00,VWS V14.01,2013-02-07 11:27:00,
2013-02-07 06:29:00,18.3,-5.4,30.33,West,278,0.0,0.0,34,0.00,,---,0.00,VWS V14.01,2013-02-07 11:29:00,
2013-02-07 06:31:00,18.1,-5.5,30.35,West,278,0.0,0.0,34,0.00,,---,0.00,VWS V14.01,2013-02-07 11:31:00,
2013-02-07 06:32:00,18.1,-6.8,30.35,West,278,0.0,0.0,32,0.00,,---,0.00,VWS V14.01,2013-02-07 11:32:00,
2013-02-07 06:34:00,18.1,-7.4,30.35,West,278,0.0,0.0,31,0.00,,---,0.00,VWS V14.01,2013-02-07 11:34:00,
2013-02-07 06:36:00,18.0,-8.2,30.35,West,280,0.0,0.0,30,0.00,,---,0.00,VWS V14.01,2013-02-07 11:36:00,
2013-02-07 06:37:00,18.0,-8.2,30.35,West,278,0.0,0.0,30,0.00,,---,0.00,VWS V14.01,2013-02-07 11:37:00,
2013-02-07 06:39:00,18.0,-8.2,30.35,West,278,0.0,0.0,30,0.00,,---,0.00,VWS V14.01,2013-02-07 11:39:00,
2013-02-07 06:41:00,18.0,-8.2,30.35,West,280,0.0,0.0,30,0.00,,---,0.00,VWS V14.01,2013-02-07 11:41:00,
2013-02-07 06:42:00,18.0,-8.2,30.35,West,278,0.0,0.0,30,0.00,,---,0.00,VWS V14.01,2013-02-07 11:42:00,
2013-02-07 06:44:00,18.0,-7.5,30.35,West,278,0.0,0.0,31,0.00,,---,0.00,VWS V14.01,2013-02-07 11:44:00,
2013-02-07 06:46:00,18.1,-9.5,30.35,West,278,0.0,0.0,28,0.00,,---,0.00,VWS V14.01,2013-02-07 11:46:00,
2013-02-07 06:47:00,18.3,-9.3,30.35,West,280,0.0,0.0,28,0.00,,---,0.00,VWS V14.01,2013-02-07 11:47:00,
2013-02-07 06:48:00,18.3,-10.1,30.35,West,280,0.0,0.0,27,0.00,,---,0.00,VWS V14.01,2013-02-07 11:48:00,
2013-02-07 06:49:00,18.4,-10.0,30.35,West,278,0.0,0.0,27,0.00,,---,0.00,VWS V14.01,2013-02-07 11:49:00,
2013-02-07 06:51:00,18.6,-10.6,30.35,West,280,0.0,0.0,26,0.00,,---,0.00,VWS V14.01,2013-02-07 11:51:00,
2013-02-07 06:52:00,18.8,-10.4,30.35,West,278,0.0,0.0,26,0.00,,---,0.00,VWS V14.01,2013-02-07 11:52:00,
2013-02-07 06:53:00,18.8,-10.4,30.35,West,278,0.0,0.0,26,0.00,,---,0.00,VWS V14.01,2013-02-07 11:53:00,
2013-02-07 06:54:00,18.9,-10.3,30.35,West,278,0.0,0.0,26,0.00,,---,0.00,VWS V14.01,2013-02-07 11:54:00,
2013-02-07 06:56:00,19.1,-10.9,30.35,West,280,0.0,0.0,25,0.00,,---,0.00,VWS V14.01,2013-02-07 11:56:00,
2013-02-07 06:57:00,19.2,-10.8,30.35,West,278,0.0,0.0,25,0.00,,---,0.00,VWS V14.01,2013-02-07 11:57:00,
2013-02-07 06:58:00,19.2,-10.8,30.35,West,278,0.0,0.0,25,0.00,,---,0.00,VWS V14.01,2013-02-07 11:58:00,
2013-02-07 07:00:00,19.4,-10.7,30.36,West,280,0.0,0.0,25,0.00,,---,0.00,VWS V14.01,2013-02-07 12:00:00,
2013-02-07 07:01:00,19.4,-11.5,30.36,West,278,0.0,0.0,24,0.00,,---,0.00,VWS V14.01,2013-02-07 12:01:00,
2013-02-07 07:02:00,19.4,-11.5,30.36,West,278,0.0,0.0,24,0.00,,---,0.00,VWS V14.01,2013-02-07 12:02:00,
2013-02-07 07:03:00,19.5,-11.4,30.36,West,278,0.0,0.0,24,0.00,,---,0.00,VWS V14.01,2013-02-07 12:03:00,
2013-02-07 07:05:00,19.5,-11.4,30.36,West,278,0.0,0.0,24,0.00,,---,0.00,VWS V14.01,2013-02-07 12:05:00,
2013-02-07 07:06:00,19.5,-10.6,30.36,West,278,1.0,1.0,25,0.00,,---,0.00,VWS V14.01,2013-02-07 12:06:00,
2013-02-07 07:07:00,19.5,-10.6,30.36,West,278,1.0,3.0,25,0.00,,---,0.00,VWS V14.01,2013-02-07 12:07:00,
2013-02-07 07:08:00,19.5,-11.4,30.36,West,280,1.0,3.0,24,0.00,,---,0.00,VWS V14.01,2013-02-07 12:08:00,
2013-02-07 07:11:00,19.7,-11.2,30.36,West,280,0.0,3.0,24,0.00,,---,0.00,VWS V14.01,2013-02-07 12:11:00,
2013-02-07 07:12:00,19.7,-11.2,30.36,West,278,2.0,3.0,24,0.00,,---,0.00,VWS V14.01,2013-02-07 12:12:00,
2013-02-07 07:14:00,19.7,-11.2,30.36,West,280,0.0,3.0,24,0.00,,---,0.00,VWS V14.01,2013-02-07 12:14:00,
2013-02-07 07:16:00,19.9,-11.1,30.36,West,278,0.0,0.0,24,0.00,,---,0.00,VWS V14.01,2013-02-07 12:16:00,
2013-02-07 07:18:00,19.9,-11.9,30.36,West,280,0.0,2.0,23,0.00,,---,0.00,VWS V14.01,2013-02-07 12:18:00,
2013-02-07 07:19:00,20.0,-11.8,30.36,West,280,1.0,2.0,23,0.00,,---,0.00,VWS V14.01,2013-02-07 12:19:00,
2013-02-07 07:21:00,20.0,-11.8,30.36,West,278,0.0,2.0,23,0.00,,---,0.00,VWS V14.01,2013-02-07 12:21:00,
2013-02-07 07:23:00,20.0,-11.8,30.36,West,278,0.0,2.0,23,0.00,,---,0.00,VWS V14.01,2013-02-07 12:23:00,
2013-02-07 07:24:00,20.2,-11.7,30.36,West,278,0.0,2.0,23,0.00,,---,0.00,VWS V14.01,2013-02-07 12:24:00,
2013-02-07 07:26:00,20.2,-11.7,30.36,West,280,2.0,2.0,23,0.00,,---,0.00,VWS V14.01,2013-02-07 12:26:00,
2013-02-07 07:27:00,20.2,-12.6,30.36,West,278,0.0,2.0,22,0.00,,---,0.00,VWS V14.01,2013-02-07 12:27:00,
2013-02-07 07:28:00,20.3,-11.6,30.36,West,278,1.0,2.0,23,0.00,,---,0.00,VWS V14.01,2013-02-07 12:28:00,
2013-02-07 07:30:00,20.5,-12.3,30.36,West,278,0.0,3.0,22,0.00,,---,0.00,VWS V14.01,2013-02-07 12:30:00,
2013-02-07 07:31:00,20.5,-11.4,30.36,West,278,2.0,2.0,23,0.00,,---,0.00,VWS V14.01,2013-02-07 12:31:00,
2013-02-07 07:32:00,20.5,-11.4,30.36,West,278,2.0,3.0,23,0.00,,---,0.00,VWS V14.01,2013-02-07 12:32:00,
2013-02-07 07:33:00,20.6,-12.2,30.36,West,280,0.0,3.0,22,0.00,,---,0.00,VWS V14.01,2013-02-07 12:33:00,
2013-02-07 07:35:00,20.6,-11.3,30.36,NNW,340,5.0,5.0,23,0.00,,---,0.00,VWS V14.01,2013-02-07 12:35:00,
2013-02-07 07:36:00,20.8,-13.0,30.36,North,353,2.0,5.0,21,0.00,,---,0.00,VWS V14.01,2013-02-07 12:36:00,
2013-02-07 07:37:00,20.8,-13.0,30.36,North,353,0.0,5.0,21,0.00,,---,0.00,VWS V14.01,2013-02-07 12:37:00,
2013-02-07 07:38:00,21.0,-12.8,30.36,North,353,0.0,5.0,21,0.00,,---,0.00,VWS V14.01,2013-02-07 12:38:00,
2013-02-07 07:40:00,21.0,-12.8,30.36,North,353,0.0,5.0,21,0.00,,---,0.00,VWS V14.01,2013-02-07 12:40:00,
2013-02-07 07:41:00,21.1,-12.7,30.36,North,353,0.0,5.0,21,0.00,,---,0.00,VWS V14.01,2013-02-07 12:41:00,
2013-02-07 07:42:00,21.1,-12.7,30.36,North,353,0.0,5.0,21,0.00,,---,0.00,VWS V14.01,2013-02-07 12:42:00,
2013-02-07 07:43:00,21.1,-12.7,30.36,North,353,0.0,5.0,21,0.00,,---,0.00,VWS V14.01,2013-02-07 12:43:00,
2013-02-07 07:45:00,21.1,-12.7,30.36,North,353,0.0,5.0,21,0.00,,---,0.00,VWS V14.01,2013-02-07 12:45:00,
2013-02-07 07:46:00,21.3,-13.5,30.36,North,353,0.0,0.0,20,0.00,,---,0.00,VWS V14.01,2013-02-07 12:46:00,
2013-02-07 07:47:00,21.3,-13.5,30.36,North,353,0.0,0.0,20,0.00,,---,0.00,VWS V14.01,2013-02-07 12:47:00,
2013-02-07 07:48:00,21.3,-13.5,30.36,North,353,0.0,2.0,20,0.00,,---,0.00,VWS V14.01,2013-02-07 12:48:00,
2013-02-07 07:50:00,21.4,-14.4,30.36,North,353,2.0,3.0,19,0.00,,---,0.00,VWS V14.01,2013-02-07 12:50:00,
2013-02-07 07:51:00,21.4,-14.4,30.36,North,353,0.0,3.0,19,0.00,,---,0.00,VWS V14.01,2013-02-07 12:51:00,
2013-02-07 07:52:00,21.4,-14.4,30.36,North,353,0.0,3.0,19,0.00,,---,0.00,VWS V14.01,2013-02-07 12:52:00,
2013-02-07 07:53:00,21.4,-14.4,30.36,North,352,1.0,3.0,19,0.00,,---,0.00,VWS V14.01,2013-02-07 12:53:00,
2013-02-07 07:55:00,21.6,-13.3,30.36,North,352,0.0,3.0,20,0.00,,---,0.00,VWS V14.01,2013-02-07 12:55:00,
2013-02-07 07:56:00,21.6,-13.3,30.36,North,352,0.0,3.0,20,0.00,,---,0.00,VWS V14.01,2013-02-07 12:56:00,
2013-02-07 07:57:00,21.6,-14.3,30.36,NNW,335,2.0,3.0,19,0.00,,---,0.00,VWS V14.01,2013-02-07 12:57:00,
2013-02-07 07:59:00,21.8,-13.1,30.36,NNW,333,0.0,3.0,20,0.00,,---,0.00,VWS V14.01,2013-02-07 12:59:00,
2013-02-07 08:00:00,21.8,-14.1,30.38,NNW,335,2.0,3.0,19,0.00,,---,0.00,VWS V14.01,2013-02-07 13:00:00,
2013-02-07 08:01:00,21.8,-14.1,30.38,NNW,335,0.0,3.0,19,0.00,,---,0.00,VWS V14.01,2013-02-07 13:01:00,
2013-02-07 08:02:00,21.8,-14.1,30.38,NNW,335,0.0,3.0,19,0.00,,---,0.00,VWS V14.01,2013-02-07 13:02:00,
2013-02-07 08:03:00,21.9,-14.0,30.38,NNW,335,1.0,3.0,19,0.00,,---,0.00,VWS V14.01,2013-02-07 13:03:00,
2013-02-07 08:05:00,21.9,-14.0,30.38,NNW,335,0.0,3.0,19,0.00,,---,0.00,VWS V14.01,2013-02-07 13:05:00,
2013-02-07 08:06:00,21.9,-14.0,30.38,NNW,335,2.0,3.0,19,0.00,,---,0.00,VWS V14.01,2013-02-07 13:06:00,
2013-02-07 08:07:00,21.9,-15.1,30.38,NNW,335,2.0,3.0,18,0.00,,---,0.00,VWS V14.01,2013-02-07 13:07:00,
2013-02-07 08:09:00,21.9,-15.1,30.38,NW,315,2.0,5.0,18,0.00,,---,0.00,VWS V14.01,2013-02-07 13:09:00,
2013-02-07 08:10:00,21.9,-15.1,30.38,North,359,2.0,5.0,18,0.00,,---,0.00,VWS V14.01,2013-02-07 13:10:00,
2013-02-07 08:11:00,21.9,-16.2,30.38,North,359,2.0,5.0,17,0.00,,---,0.00,VWS V14.01,2013-02-07 13:11:00,
2013-02-07 08:12:00,22.1,-16.0,30.38,North,357,1.0,5.0,17,0.00,,---,0.00,VWS V14.01,2013-02-07 13:12:00,
2013-02-07 08:14:00,22.1,-16.0,30.38,NW,322,1.0,5.0,17,0.00,,---,0.00,VWS V14.01,2013-02-07 13:14:00,
2013-02-07 08:16:00,22.1,-14.9,30.39,NNW,347,0.0,0.0,18,0.00,,---,0.00,VWS V14.01,2013-02-07 13:16:00,
2013-02-07 08:17:00,22.1,-14.9,30.39,NNW,347,0.0,1.0,18,0.00,,---,0.00,VWS V14.01,2013-02-07 13:17:00,
2013-02-07 08:18:00,22.2,-16.0,30.39,NNW,347,0.0,2.0,17,0.00,,---,0.00,VWS V14.01,2013-02-07 13:18:00,
2013-02-07 08:19:00,22.2,-14.8,30.39,NNW,347,0.0,2.0,18,0.00,,---,0.00,VWS V14.01,2013-02-07 13:19:00,
2013-02-07 08:21:00,22.2,-14.8,30.39,North,356,3.0,3.0,18,0.00,,---,0.00,VWS V14.01,2013-02-07 13:21:00,
2013-02-07 08:22:00,22.2,-16.0,30.39,North,356,1.0,3.0,17,0.00,,---,0.00,VWS V14.01,2013-02-07 13:22:00,
2013-02-07 08:23:00,22.2,-16.0,30.39,North,356,3.0,3.0,17,0.00,,---,0.00,VWS V14.01,2013-02-07 13:23:00,
2013-02-07 08:24:00,22.4,-15.8,30.39,NNE,28,0.0,3.0,17,0.00,,---,0.00,VWS V14.01,2013-02-07 13:24:00,
2013-02-07 08:26:00,22.4,-15.8,30.39,NNE,28,0.0,3.0,17,0.00,,---,0.00,VWS V14.01,2013-02-07 13:26:00,
2013-02-07 08:27:00,22.4,-15.8,30.39,NNE,28,0.0,3.0,17,0.00,,---,0.00,VWS V14.01,2013-02-07 13:27:00,
2013-02-07 08:28:00,22.4,-15.8,30.39,NNE,28,0.0,3.0,17,0.00,,---,0.00,VWS V14.01,2013-02-07 13:28:00,
2013-02-07 08:29:00,22.5,-14.6,30.39,NNE,28,0.0,3.0,18,0.00,,---,0.00,VWS V14.01,2013-02-07 13:29:00,
2013-02-07 08:31:00,22.5,-15.7,30.40,NNE,28,0.0,0.0,17,0.00,,---,0.00,VWS V14.01,2013-02-07 13:31:00,
2013-02-07 08:32:00,22.7,-14.4,30.40,NNE,28,0.0,0.0,18,0.00,,---,0.00,VWS V14.01,2013-02-07 13:32:00,
2013-02-07 08:33:00,22.7,-15.6,30.40,NNE,28,0.0,0.0,17,0.00,,---,0.00,VWS V14.01,2013-02-07 13:33:00,
2013-02-07 08:34:00,22.7,-14.4,30.40,NNE,28,0.0,0.0,18,0.00,,---,0.00,VWS V14.01,2013-02-07 13:34:00,
2013-02-07 08:36:00,22.9,-15.4,30.40,NNE,28,0.0,1.0,17,0.00,,---,0.00,VWS V14.01,2013-02-07 13:36:00,
2013-02-07 08:37:00,22.9,-15.4,30.40,NNE,28,1.0,2.0,17,0.00,,---,0.00,VWS V14.01,2013-02-07 13:37:00,
2013-02-07 08:38:00,22.9,-15.4,30.40,NNE,28,0.0,2.0,17,0.00,,---,0.00,VWS V14.01,2013-02-07 13:38:00,
2013-02-07 08:39:00,22.9,-15.4,30.40,NNE,28,0.0,2.0,17,0.00,,---,0.00,VWS V14.01,2013-02-07 13:39:00,
2013-02-07 08:41:00,23.0,-15.3,30.40,NNE,28,1.0,2.0,17,0.00,,---,0.00,VWS V14.01,2013-02-07 13:41:00,
2013-02-07 08:42:00,23.0,-15.3,30.40,NNE,28,0.0,3.0,17,0.00,,---,0.00,VWS V14.01,2013-02-07 13:42:00,
2013-02-07 08:43:00,23.0,-15.3,30.40,NNE,28,0.0,3.0,17,0.00,,---,0.00,VWS V14.01,2013-02-07 13:43:00,
2013-02-07 08:44:00,23.0,-15.3,30.40,NNE,28,0.0,3.0,17,0.00,,---,0.00,VWS V14.01,2013-02-07 13:44:00,
2013-02-07 08:46:00,23.2,-16.3,30.41,NNE,28,1.0,1.0,16,0.00,,---,0.00,VWS V14.01,2013-02-07 13:46:00,
2013-02-07 08:47:00,23.2,-16.3,30.41,NNE,28,0.0,2.0,16,0.00,,---,0.00,VWS V14.01,2013-02-07 13:47:00,
2013-02-07 08:48:00,23.2,-16.3,30.41,NNE,28,0.0,2.0,16,0.00,,---,0.00,VWS V14.01,2013-02-07 13:48:00,
2013-02-07 08:49:00,23.2,-16.3,30.41,NNE,28,0.0,2.0,16,0.00,,---,0.00,VWS V14.01,2013-02-07 13:49:00,
2013-02-07 08:51:00,23.3,-16.2,30.41,NNE,28,1.0,2.0,16,0.00,,---,0.00,VWS V14.01,2013-02-07 13:51:00,
2013-02-07 08:53:00,23.3,-16.2,30.41,NNW,346,1.0,2.0,16,0.00,,---,0.00,VWS V14.01,2013-02-07 13:53:00,
2013-02-07 08:54:00,23.5,-17.3,30.41,NNW,346,0.0,2.0,15,0.00,,---,0.00,VWS V14.01,2013-02-07 13:54:00,
2013-02-07 08:56:00,23.6,-16.0,30.41,NNW,347,0.0,2.0,16,0.00,,---,0.00,VWS V14.01,2013-02-07 13:56:00,
2013-02-07 08:58:00,23.6,-16.0,30.41,NNW,347,1.0,2.0,16,0.00,,---,0.00,VWS V14.01,2013-02-07 13:58:00,
2013-02-07 08:59:00,23.6,-16.0,30.41,NNW,347,3.0,3.0,16,0.00,,---,0.00,VWS V14.01,2013-02-07 13:59:00,
2013-02-07 09:02:00,23.8,-15.8,30.41,NNW,347,1.0,1.0,16,0.00,,---,0.00,VWS V14.01,2013-02-07 14:02:00,
2013-02-07 09:03:00,23.9,-17.0,30.41,NNW,347,3.0,3.0,15,0.00,,---,0.00,VWS V14.01,2013-02-07 14:03:00,
2013-02-07 09:04:00,23.9,-18.4,30.41,NNW,347,3.0,3.0,14,0.00,,---,0.00,VWS V14.01,2013-02-07 14:04:00,
2013-02-07 09:07:00,23.9,-18.4,30.41,NNW,347,0.0,4.0,14,0.00,,---,0.00,VWS V14.01,2013-02-07 14:07:00,
2013-02-07 09:08:00,23.9,-18.4,30.41,NNW,347,1.0,4.0,14,0.00,,---,0.00,VWS V14.01,2013-02-07 14:08:00,
2013-02-07 09:09:00,23.9,-18.4,30.41,NNW,347,0.0,4.0,14,0.00,,---,0.00,VWS V14.01,2013-02-07 14:09:00,
2013-02-07 09:12:00,24.1,-18.2,30.41,North,11,0.0,4.0,14,0.00,,---,0.00,VWS V14.01,2013-02-07 14:12:00,
2013-02-07 09:13:00,24.1,-18.2,30.41,North,11,0.0,4.0,14,0.00,,---,0.00,VWS V14.01,2013-02-07 14:13:00,
2013-02-07 09:14:00,24.1,-18.2,30.41,North,11,0.0,4.0,14,0.00,,---,0.00,VWS V14.01,2013-02-07 14:14:00,
2013-02-07 09:17:00,24.2,-18.1,30.41,North,11,0.0,0.0,14,0.00,,---,0.00,VWS V14.01,2013-02-07 14:17:00,
2013-02-07 09:18:00,24.2,-19.5,30.41,North,11,2.0,2.0,13,0.00,,---,0.00,VWS V14.01,2013-02-07 14:18:00,
2013-02-07 09:19:00,24.2,-19.5,30.41,North,11,2.0,2.0,13,0.00,,---,0.00,VWS V14.01,2013-02-07 14:19:00,
2013-02-07 09:22:00,24.2,-18.1,30.41,North,11,0.0,2.0,14,0.00,,---,0.00,VWS V14.01,2013-02-07 14:22:00,
2013-02-07 09:23:00,24.4,-18.0,30.41,North,11,0.0,2.0,14,0.00,,---,0.00,VWS V14.01,2013-02-07 14:23:00,
2013-02-07 09:24:00,24.4,-19.4,30.41,North,11,0.0,2.0,13,0.00,,---,0.00,VWS V14.01,2013-02-07 14:24:00,
2013-02-07 09:27:00,24.5,-19.3,30.41,NE,49,0.0,3.0,13,0.00,,---,0.00,VWS V14.01,2013-02-07 14:27:00,
2013-02-07 09:28:00,24.5,-19.3,30.41,NNE,31,3.0,6.0,13,0.00,,---,0.00,VWS V14.01,2013-02-07 14:28:00,
2013-02-07 09:29:00,24.5,-19.3,30.41,NNE,31,2.0,6.0,13,0.00,,---,0.00,VWS V14.01,2013-02-07 14:29:00,
2013-02-07 09:30:00,24.5,-19.3,30.41,NNE,31,0.0,6.0,13,0.00,,---,0.00,VWS V14.01,2013-02-07 14:30:00,
2013-02-07 09:32:00,24.7,-19.1,30.41,ENE,65,3.0,6.0,13,0.00,,---,0.00,VWS V14.01,2013-02-07 14:32:00,
2013-02-07 09:33:00,24.7,-19.1,30.41,NE,47,7.0,7.0,13,0.00,,---,0.00,VWS V14.01,2013-02-07 14:33:00,
2013-02-07 09:34:00,24.7,-20.7,30.41,NE,44,3.0,7.0,12,0.00,,---,0.00,VWS V14.01,2013-02-07 14:34:00,
2013-02-07 09:35:00,24.7,-20.7,30.41,NNE,32,2.0,7.0,12,0.00,,---,0.00,VWS V14.01,2013-02-07 14:35:00,
2013-02-07 09:37:00,24.7,-20.7,30.41,NE,38,1.0,7.0,12,0.00,,---,0.00,VWS V14.01,2013-02-07 14:37:00,
2013-02-07 09:38:00,24.7,-20.7,30.41,NE,38,0.0,7.0,12,0.00,,---,0.00,VWS V14.01,2013-02-07 14:38:00,
2013-02-07 09:39:00,24.8,-19.1,30.41,NE,35,1.0,7.0,13,0.00,,---,0.00,VWS V14.01,2013-02-07 14:39:00,
2013-02-07 09:40:00,24.8,-19.1,30.41,NE,35,2.0,7.0,13,0.00,,---,0.00,VWS V14.01,2013-02-07 14:40:00,
2013-02-07 09:42:00,25.0,-18.9,30.41,NE,35,0.0,7.0,13,0.00,,---,0.00,VWS V14.01,2013-02-07 14:42:00,
2013-02-07 09:43:00,25.0,-18.9,30.41,NE,35,0.0,7.0,13,0.00,,---,0.00,VWS V14.01,2013-02-07 14:43:00,
2013-02-07 09:44:00,25.0,-18.9,30.41,NE,35,0.0,7.0,13,0.00,,---,0.00,VWS V14.01,2013-02-07 14:44:00,
2013-02-07 09:45:00,25.1,-17.4,30.41,NE,35,2.0,7.0,14,0.00,,---,0.00,VWS V14.01,2013-02-07 14:45:00,
2013-02-07 09:48:00,25.3,-20.2,30.41,North,349,3.0,4.0,12,0.00,,---,0.00,VWS V14.01,2013-02-07 14:48:00,
2013-02-07 09:49:00,25.3,-18.7,30.41,North,350,2.0,4.0,13,0.00,,---,0.00,VWS V14.01,2013-02-07 14:49:00,
2013-02-07 09:50:00,25.3,-20.2,30.41,North,350,3.0,4.0,12,0.00,,---,0.00,VWS V14.01,2013-02-07 14:50:00,
2013-02-07 09:53:00,25.3,-20.2,30.41,North,350,1.0,4.0,12,0.00,,---,0.00,VWS V14.01,2013-02-07 14:53:00,
2013-02-07 09:54:00,25.4,-20.1,30.41,North,350,0.0,5.0,12,0.00,,---,0.00,VWS V14.01,2013-02-07 14:54:00,
2013-02-07 09:55:00,25.4,-18.6,30.41,North,350,0.0,5.0,13,0.00,,---,0.00,VWS V14.01,2013-02-07 14:55:00,
2013-02-07 09:58:00,25.6,-18.4,30.41,NE,34,8.0,8.0,13,0.00,,---,0.00,VWS V14.01,2013-02-07 14:58:00,
2013-02-07 09:59:00,25.6,-21.6,30.41,NE,44,2.0,8.0,11,0.00,,---,0.00,VWS V14.01,2013-02-07 14:59:00,
2013-02-07 10:00:00,25.6,-20.0,30.42,NNE,32,4.0,8.0,12,0.00,,---,0.00,VWS V14.01,2013-02-07 15:00:00,
2013-02-07 10:03:00,25.6,-21.6,30.42,NNE,31,5.0,5.0,11,0.00,,---,0.00,VWS V14.01,2013-02-07 15:03:00,
2013-02-07 10:04:00,25.6,-21.6,30.42,NNE,32,3.0,6.0,11,0.00,,---,0.00,VWS V14.01,2013-02-07 15:04:00,
2013-02-07 10:05:00,25.6,-21.6,30.42,NE,37,1.0,6.0,11,0.00,,---,0.00,VWS V14.01,2013-02-07 15:05:00,
2013-02-07 10:08:00,25.6,-20.0,30.42,NE,41,3.0,6.0,12,0.00,,---,0.00,VWS V14.01,2013-02-07 15:08:00,
2013-02-07 10:09:00,25.6,-20.0,30.42,NE,40,5.0,6.0,12,0.00,,---,0.00,VWS V14.01,2013-02-07 15:09:00,
2013-02-07 10:10:00,25.4,-21.8,30.42,NNE,23,0.0,6.0,11,0.00,,---,0.00,VWS V14.01,2013-02-07 15:10:00,
2013-02-07 10:13:00,25.7,-18.3,30.42,NW,323,1.0,6.0,13,0.00,,---,0.00,VWS V14.01,2013-02-07 15:13:00,
2013-02-07 10:14:00,25.7,-18.3,30.42,NNW,336,2.0,6.0,13,0.00,,---,0.00,VWS V14.01,2013-02-07 15:14:00,
2013-02-07 10:15:00,25.8,-18.3,30.42,NNW,336,1.0,6.0,13,0.00,,---,0.00,VWS V14.01,2013-02-07 15:15:00,
2013-02-07 10:18:00,25.7,-19.9,30.42,NNE,24,7.0,9.0,12,0.00,,---,0.00,VWS V14.01,2013-02-07 15:18:00,
2013-02-07 10:19:00,25.6,-20.0,30.42,NE,34,5.0,9.0,12,0.00,,---,0.00,VWS V14.01,2013-02-07 15:19:00,
2013-02-07 10:20:00,25.6,-18.4,30.42,NE,45,2.0,9.0,13,0.00,,---,0.00,VWS V14.01,2013-02-07 15:20:00,
2013-02-07 10:23:00,25.6,-20.0,30.42,North,352,5.0,9.0,12,0.00,,---,0.00,VWS V14.01,2013-02-07 15:23:00,
2013-02-07 10:24:00,25.6,-20.0,30.42,North,4,1.0,9.0,12,0.00,,---,0.00,VWS V14.01,2013-02-07 15:24:00,
2013-02-07 10:25:00,25.6,-20.0,30.42,NE,35,1.0,9.0,12,0.00,,---,0.00,VWS V14.01,2013-02-07 15:25:00,
2013-02-07 10:28:00,25.6,-20.0,30.42,North,0,6.0,9.0,12,0.00,,---,0.00,VWS V14.01,2013-02-07 15:28:00,
2013-02-07 10:29:00,25.6,-20.0,30.42,NNE,31,1.0,9.0,12,0.00,,---,0.00,VWS V14.01,2013-02-07 15:29:00,
2013-02-07 10:30:00,25.6,-20.0,30.42,North,356,2.0,9.0,12,0.00,,---,0.00,VWS V14.01,2013-02-07 15:30:00,
2013-02-07 10:31:00,25.6,-20.0,30.42,North,0,1.0,9.0,12,0.00,,---,0.00,VWS V14.01,2013-02-07 15:31:00,
2013-02-07 10:33:00,25.7,-18.3,30.42,NNE,28,2.0,3.0,13,0.00,,---,0.00,VWS V14.01,2013-02-07 15:33:00,
2013-02-07 10:34:00,25.8,-18.3,30.42,North,0,4.0,4.0,13,0.00,,---,0.00,VWS V14.01,2013-02-07 15:34:00,
2013-02-07 10:35:00,25.8,-18.3,30.42,NNW,328,4.0,4.0,13,0.00,,---,0.00,VWS V14.01,2013-02-07 15:35:00,
2013-02-07 10:36:00,25.8,-18.3,30.42,North,359,2.0,4.0,13,0.00,,---,0.00,VWS V14.01,2013-02-07 15:36:00,
2013-02-07 10:39:00,25.7,-16.9,30.42,ENE,68,7.0,9.0,14,0.00,,---,0.00,VWS V14.01,2013-02-07 15:39:00,
2013-02-07 10:40:00,25.7,-16.9,30.42,NE,35,2.0,9.0,14,0.00,,---,0.00,VWS V14.01,2013-02-07 15:40:00,
2013-02-07 10:41:00,25.7,-16.9,30.42,North,1,3.0,9.0,14,0.00,,---,0.00,VWS V14.01,2013-02-07 15:41:00,
2013-02-07 10:44:00,25.7,-16.9,30.42,NE,38,0.0,9.0,14,0.00,,---,0.00,VWS V14.01,2013-02-07 15:44:00,
2013-02-07 10:45:00,25.8,-16.8,30.42,NE,45,3.0,9.0,14,0.00,,---,0.00,VWS V14.01,2013-02-07 15:45:00,
2013-02-07 10:46:00,25.8,-16.8,30.42,NE,45,0.0,2.0,14,0.00,,---,0.00,VWS V14.01,2013-02-07 15:46:00,
2013-02-07 10:49:00,26.0,-18.1,30.42,NNW,343,4.0,5.0,13,0.00,,---,0.00,VWS V14.01,2013-02-07 15:49:00,
2013-02-07 10:50:00,26.0,-18.1,30.42,NNW,343,0.0,5.0,13,0.00,,---,0.00,VWS V14.01,2013-02-07 15:50:00,
2013-02-07 10:51:00,26.1,-16.6,30.42,NE,38,6.0,6.0,14,0.00,,---,0.00,VWS V14.01,2013-02-07 15:51:00,
2013-02-07 10:54:00,26.1,-19.6,30.42,NE,34,1.0,8.0,12,0.00,,---,0.00,VWS V14.01,2013-02-07 15:54:00,
2013-02-07 10:55:00,26.1,-19.6,30.42,NNE,31,5.0,8.0,12,0.00,,---,0.00,VWS V14.01,2013-02-07 15:55:00,
2013-02-07 10:56:00,26.3,-19.4,30.42,NE,44,4.0,8.0,12,0.00,,---,0.00,VWS V14.01,2013-02-07 15:56:00,
2013-02-07 10:59:00,26.4,-19.3,30.42,NNW,347,4.0,8.0,12,0.00,,---,0.00,VWS V14.01,2013-02-07 15:59:00,
2013-02-07 11:00:00,26.4,-19.3,30.43,North,349,3.0,8.0,12,0.00,,---,0.00,VWS V14.01,2013-02-07 16:00:00,
2013-02-07 11:01:00,26.4,-19.3,30.43,NNW,336,1.0,3.0,12,0.00,,---,0.00,VWS V14.01,2013-02-07 16:01:00,
2013-02-07 11:04:00,26.4,-19.3,30.43,NE,38,6.0,6.0,12,0.00,,---,0.00,VWS V14.01,2013-02-07 16:04:00,
2013-02-07 11:05:00,26.4,-19.3,30.43,NE,34,1.0,6.0,12,0.00,,---,0.00,VWS V14.01,2013-02-07 16:05:00,
2013-02-07 11:06:00,26.4,-19.3,30.43,NNE,32,2.0,6.0,12,0.00,,---,0.00,VWS V14.01,2013-02-07 16:06:00,
2013-02-07 11:09:00,26.6,-19.2,30.43,NE,44,3.0,7.0,12,0.00,,---,0.00,VWS V14.01,2013-02-07 16:09:00,
2013-02-07 11:10:00,26.6,-19.2,30.43,NE,47,7.0,7.0,12,0.00,,---,0.00,VWS V14.01,2013-02-07 16:10:00,
2013-02-07 11:11:00,26.6,-20.8,30.43,ENE,59,2.0,8.0,11,0.00,,---,0.00,VWS V14.01,2013-02-07 16:11:00,
2013-02-07 11:14:00,26.6,-20.8,30.43,ENE,61,5.0,8.0,11,0.00,,---,0.00,VWS V14.01,2013-02-07 16:14:00,
2013-02-07 11:15:00,26.6,-19.2,30.42,NE,55,3.0,8.0,12,0.00,,---,0.00,VWS V14.01,2013-02-07 16:15:00,
2013-02-07 11:16:00,26.6,-19.2,30.42,NE,47,4.0,4.0,12,0.00,,---,0.00,VWS V14.01,2013-02-07 16:16:00,
2013-02-07 11:19:00,26.9,-20.6,30.42,NE,52,5.0,10.0,11,0.00,,---,0.00,VWS V14.01,2013-02-07 16:19:00,
2013-02-07 11:20:00,26.7,-20.8,30.42,North,7,5.0,10.0,11,0.00,,---,0.00,VWS V14.01,2013-02-07 16:20:00,
2013-02-07 11:21:00,26.7,-19.1,30.42,NNE,23,3.0,10.0,12,0.00,,---,0.00,VWS V14.01,2013-02-07 16:21:00,
2013-02-07 11:22:00,26.7,-19.1,30.42,NNE,16,1.0,10.0,12,0.00,,---,0.00,VWS V14.01,2013-02-07 16:22:00,
2013-02-07 11:24:00,26.9,-20.6,30.42,NE,38,3.0,10.0,11,0.00,,---,0.00,VWS V14.01,2013-02-07 16:24:00,
2013-02-07 11:25:00,26.9,-20.6,30.42,NE,42,5.0,10.0,11,0.00,,---,0.00,VWS V14.01,2013-02-07 16:25:00,
2013-02-07 11:26:00,26.9,-20.6,30.42,NE,47,4.0,10.0,11,0.00,,---,0.00,VWS V14.01,2013-02-07 16:26:00,
2013-02-07 11:27:00,26.9,-20.6,30.42,North,354,3.0,10.0,11,0.00,,---,0.00,VWS V14.01,2013-02-07 16:27:00,
2013-02-07 11:29:00,27.0,-18.8,30.42,NE,40,6.0,10.0,12,0.00,,---,0.00,VWS V14.01,2013-02-07 16:29:00,
2013-02-07 11:30:00,27.0,-18.8,30.41,NE,34,0.0,10.0,12,0.00,,---,0.00,VWS V14.01,2013-02-07 16:30:00,
2013-02-07 11:31:00,27.0,-18.8,30.41,NE,38,8.0,8.0,12,0.00,,---,0.00,VWS V14.01,2013-02-07 16:31:00,
2013-02-07 11:32:00,27.0,-18.8,30.41,NNW,335,3.0,8.0,12,0.00,,---,0.00,VWS V14.01,2013-02-07 16:32:00,
2013-02-07 11:34:00,27.0,-20.5,30.41,NE,45,2.0,8.0,11,0.00,,---,0.00,VWS V14.01,2013-02-07 16:34:00,
2013-02-07 11:35:00,27.0,-20.5,30.41,NNE,31,0.0,8.0,11,0.00,,---,0.00,VWS V14.01,2013-02-07 16:35:00,
2013-02-07 11:36:00,27.2,-18.7,30.41,NNW,347,2.0,8.0,12,0.00,,---,0.00,VWS V14.01,2013-02-07 16:36:00,
2013-02-07 11:37:00,27.2,-20.4,30.41,NNE,16,3.0,8.0,11,0.00,,---,0.00,VWS V14.01,2013-02-07 16:37:00,
2013-02-07 11:39:00,27.5,-18.4,30.41,NE,37,3.0,8.0,12,0.00,,---,0.00,VWS V14.01,2013-02-07 16:39:00,
2013-02-07 11:41:00,27.5,-20.1,30.41,NNE,32,2.0,8.0,11,0.00,,---,0.00,VWS V14.01,2013-02-07 16:41:00,
2013-02-07 11:42:00,27.5,-20.1,30.41,NNE,16,1.0,8.0,11,0.00,,---,0.00,VWS V14.01,2013-02-07 16:42:00,
2013-02-07 11:45:00,27.6,-20.0,30.40,NE,55,2.0,8.0,11,0.00,,---,0.00,VWS V14.01,2013-02-07 16:45:00,
2013-02-07 11:46:00,27.6,-20.0,30.40,North,354,3.0,3.0,11,0.00,,---,0.00,VWS V14.01,2013-02-07 16:46:00,
2013-02-07 11:47:00,27.6,-20.0,30.40,North,354,3.0,4.0,11,0.00,,---,0.00,VWS V14.01,2013-02-07 16:47:00,
2013-02-07 11:50:00,27.8,-21.7,30.40,NE,40,3.0,7.0,10,0.00,,---,0.00,VWS V14.01,2013-02-07 16:50:00,
2013-02-07 11:51:00,27.8,-21.7,30.40,NE,34,2.0,7.0,10,0.00,,---,0.00,VWS V14.01,2013-02-07 16:51:00,
2013-02-07 11:52:00,27.8,-21.7,30.40,NNE,30,1.0,7.0,10,0.00,,---,0.00,VWS V14.01,2013-02-07 16:52:00,
2013-02-07 11:55:00,27.9,-21.6,30.40,North,357,1.0,7.0,10,0.00,,---,0.00,VWS V14.01,2013-02-07 16:55:00,
2013-02-07 11:56:00,27.9,-21.6,30.40,NE,48,3.0,7.0,10,0.00,,---,0.00,VWS V14.01,2013-02-07 16:56:00,
2013-02-07 11:57:00,28.1,-21.5,30.40,NE,51,7.0,7.0,10,0.00,,---,0.00,VWS V14.01,2013-02-07 16:57:00,
2013-02-07 11:58:00,28.1,-21.5,30.40,NNE,30,3.0,7.0,10,0.00,,---,0.00,VWS V14.01,2013-02-07 16:58:00,
2013-02-07 12:00:00,28.1,-21.5,30.39,NE,48,8.0,8.0,10,0.00,,---,0.00,VWS V14.01,2013-02-07 17:00:00,
2013-02-07 12:01:00,27.9,-21.6,30.39,NE,49,5.0,6.0,10,0.00,,---,0.00,VWS V14.01,2013-02-07 17:01:00,
2013-02-07 12:02:00,27.8,-21.7,30.39,NE,35,3.0,6.0,10,0.00,,---,0.00,VWS V14.01,2013-02-07 17:02:00,
2013-02-07 12:03:00,27.8,-21.7,30.39,NE,52,5.0,6.0,10,0.00,,---,0.00,VWS V14.01,2013-02-07 17:03:00,
2013-02-07 12:05:00,27.8,-21.7,30.39,NE,48,0.0,6.0,10,0.00,,---,0.00,VWS V14.01,2013-02-07 17:05:00,
2013-02-07 12:06:00,27.8,-21.7,30.39,NE,42,2.0,6.0,10,0.00,,---,0.00,VWS V14.01,2013-02-07 17:06:00,
2013-02-07 12:07:00,27.9,-21.6,30.39,ENE,66,1.0,6.0,10,0.00,,---,0.00,VWS V14.01,2013-02-07 17:07:00,
2013-02-07 12:08:00,27.9,-21.6,30.39,SE,126,0.0,6.0,10,0.00,,---,0.00,VWS V14.01,2013-02-07 17:08:00,
2013-02-07 12:10:00,28.4,-21.2,30.39,NE,44,5.0,6.0,10,0.00,,---,0.00,VWS V14.01,2013-02-07 17:10:00,
2013-02-07 12:11:00,28.4,-21.2,30.39,NE,56,6.0,6.0,10,0.00,,---,0.00,VWS V14.01,2013-02-07 17:11:00,
2013-02-07 12:12:00,28.4,-21.2,30.39,ENE,76,3.0,6.0,10,0.00,,---,0.00,VWS V14.01,2013-02-07 17:12:00,
2013-02-07 12:13:00,28.5,-19.3,30.39,NE,51,2.0,6.0,11,0.00,,---,0.00,VWS V14.01,2013-02-07 17:13:00,
2013-02-07 12:15:00,28.7,-21.0,30.39,NE,44,6.0,6.0,10,0.00,,---,0.00,VWS V14.01,2013-02-07 17:15:00,
2013-02-07 12:16:00,28.7,-21.0,30.39,NE,37,6.0,6.0,10,0.00,,---,0.00,VWS V14.01,2013-02-07 17:16:00,
2013-02-07 12:18:00,28.7,-21.0,30.39,ENE,75,3.0,6.0,10,0.00,,---,0.00,VWS V14.01,2013-02-07 17:18:00,
2013-02-07 12:20:00,28.7,-21.0,30.39,East,80,1.0,6.0,10,0.00,,---,0.00,VWS V14.01,2013-02-07 17:20:00,
2013-02-07 12:21:00,28.8,-20.9,30.39,ENE,66,2.0,6.0,10,0.00,,---,0.00,VWS V14.01,2013-02-07 17:21:00,
2013-02-07 12:23:00,28.8,-22.9,30.39,ENE,78,1.0,6.0,9,0.00,,---,0.00,VWS V14.01,2013-02-07 17:23:00,
2013-02-07 12:24:00,28.8,-22.9,30.39,ESE,120,4.0,6.0,9,0.00,,---,0.00,VWS V14.01,2013-02-07 17:24:00,
2013-02-07 12:25:00,28.8,-20.9,30.39,NE,52,5.0,7.0,10,0.00,,---,0.00,VWS V14.01,2013-02-07 17:25:00,
2013-02-07 12:27:00,28.8,-22.9,30.39,East,90,5.0,7.0,9,0.00,,---,0.00,VWS V14.01,2013-02-07 17:27:00,
2013-02-07 12:28:00,28.7,-23.0,30.39,East,80,6.0,7.0,9,0.00,,---,0.00,VWS V14.01,2013-02-07 17:28:00,
2013-02-07 12:29:00,28.7,-23.0,30.39,ENE,75,5.0,7.0,9,0.00,,---,0.00,VWS V14.01,2013-02-07 17:29:00,
2013-02-07 12:30:00,28.7,-23.0,30.38,East,82,3.0,7.0,9,0.00,,---,0.00,VWS V14.01,2013-02-07 17:30:00,
2013-02-07 12:32:00,28.7,-23.0,30.38,East,82,2.0,3.0,9,0.00,,---,0.00,VWS V14.01,2013-02-07 17:32:00,
2013-02-07 12:33:00,28.7,-23.0,30.38,East,82,1.0,4.0,9,0.00,,---,0.00,VWS V14.01,2013-02-07 17:33:00,
2013-02-07 12:34:00,28.7,-23.0,30.38,East,79,0.0,4.0,9,0.00,,---,0.00,VWS V14.01,2013-02-07 17:34:00,
2013-02-07 12:36:00,29.0,-22.8,30.38,NE,42,4.0,4.0,9,0.00,,---,0.00,VWS V14.01,2013-02-07 17:36:00,
2013-02-07 12:37:00,29.1,-20.7,30.38,North,4,1.0,4.0,10,0.00,,---,0.00,VWS V14.01,2013-02-07 17:37:00,
2013-02-07 12:38:00,29.3,-22.5,30.38,ENE,59,3.0,5.0,9,0.00,,---,0.00,VWS V14.01,2013-02-07 17:38:00,
2013-02-07 12:39:00,29.3,-22.5,30.38,ENE,58,6.0,6.0,9,0.00,,---,0.00,VWS V14.01,2013-02-07 17:39:00,
2013-02-07 12:41:00,29.1,-22.7,30.38,NE,45,1.0,6.0,9,0.00,,---,0.00,VWS V14.01,2013-02-07 17:41:00,
2013-02-07 12:42:00,29.1,-22.7,30.38,NNE,14,1.0,6.0,9,0.00,,---,0.00,VWS V14.01,2013-02-07 17:42:00,
2013-02-07 12:43:00,29.3,-22.5,30.38,North,7,2.0,6.0,9,0.00,,---,0.00,VWS V14.01,2013-02-07 17:43:00,
2013-02-07 12:44:00,29.3,-22.5,30.38,North,7,0.0,6.0,9,0.00,,---,0.00,VWS V14.01,2013-02-07 17:44:00,
2013-02-07 12:46:00,29.3,-24.8,30.38,NNE,31,1.0,2.0,8,0.00,,---,0.00,VWS V14.01,2013-02-07 17:46:00,
2013-02-07 12:47:00,29.3,-24.8,30.38,NE,38,5.0,7.0,8,0.00,,---,0.00,VWS V14.01,2013-02-07 17:47:00,
2013-02-07 12:48:00,29.3,-24.8,30.38,NE,34,3.0,7.0,8,0.00,,---,0.00,VWS V14.01,2013-02-07 17:48:00,
2013-02-07 12:49:00,29.1,-24.9,30.38,NE,38,3.0,7.0,8,0.00,,---,0.00,VWS V14.01,2013-02-07 17:49:00,
2013-02-07 12:51:00,29.1,-24.9,30.38,NE,41,0.0,7.0,8,0.00,,---,0.00,VWS V14.01,2013-02-07 17:51:00,
2013-02-07 12:52:00,29.1,-24.9,30.38,NE,41,0.0,7.0,8,0.00,,---,0.00,VWS V14.01,2013-02-07 17:52:00,
2013-02-07 12:53:00,29.1,-24.9,30.38,NE,55,0.0,7.0,8,0.00,,---,0.00,VWS V14.01,2013-02-07 17:53:00,
2013-02-07 12:54:00,29.1,-24.9,30.38,NE,55,0.0,7.0,8,0.00,,---,0.00,VWS V14.01,2013-02-07 17:54:00,
2013-02-07 12:56:00,29.3,-27.2,30.38,NE,55,0.0,7.0,7,0.00,,---,0.00,VWS V14.01,2013-02-07 17:56:00,
2013-02-07 12:57:00,29.3,-27.2,30.38,East,97,0.0,7.0,7,0.00,,---,0.00,VWS V14.01,2013-02-07 17:57:00,
2013-02-07 12:58:00,29.3,-24.8,30.38,NE,41,3.0,7.0,8,0.00,,---,0.00,VWS V14.01,2013-02-07 17:58:00,
2013-02-07 12:59:00,29.4,-24.7,30.38,NE,48,3.0,7.0,8,0.00,,---,0.00,VWS V14.01,2013-02-07 17:59:00,
2013-02-07 13:01:00,29.5,-27.1,30.38,ENE,68,4.0,4.0,7,0.00,,---,0.00,VWS V14.01,2013-02-07 18:01:00,
2013-02-07 13:02:00,29.5,-27.1,30.38,ENE,68,0.0,4.0,7,0.00,,---,0.00,VWS V14.01,2013-02-07 18:02:00,
2013-02-07 13:03:00,29.5,-27.1,30.38,ENE,68,1.0,4.0,7,0.00,,---,0.00,VWS V14.01,2013-02-07 18:03:00,
2013-02-07 13:04:00,29.7,-26.9,30.38,NE,52,1.0,4.0,7,0.00,,---,0.00,VWS V14.01,2013-02-07 18:04:00,
2013-02-07 13:06:00,29.8,-26.9,30.38,NE,55,1.0,4.0,7,0.00,,---,0.00,VWS V14.01,2013-02-07 18:06:00,
2013-02-07 13:07:00,29.8,-26.9,30.38,East,88,2.0,4.0,7,0.00,,---,0.00,VWS V14.01,2013-02-07 18:07:00,
2013-02-07 13:09:00,29.8,-26.9,30.38,NNE,23,5.0,6.0,7,0.00,,---,0.00,VWS V14.01,2013-02-07 18:09:00,
2013-02-07 13:11:00,29.8,-26.9,30.38,NE,42,1.0,6.0,7,0.00,,---,0.00,VWS V14.01,2013-02-07 18:11:00,
2013-02-07 13:12:00,29.8,-26.9,30.38,NE,42,1.0,6.0,7,0.00,,---,0.00,VWS V14.01,2013-02-07 18:12:00,
2013-02-07 13:14:00,29.8,-26.9,30.38,North,0,1.0,6.0,7,0.00,,---,0.00,VWS V14.01,2013-02-07 18:14:00,
2013-02-07 13:16:00,30.0,-26.7,30.38,West,277,1.0,3.0,7,0.00,,---,0.00,VWS V14.01,2013-02-07 18:16:00,
2013-02-07 13:17:00,30.1,-26.6,30.38,West,277,3.0,3.0,7,0.00,,---,0.00,VWS V14.01,2013-02-07 18:17:00,
2013-02-07 13:19:00,30.1,-26.6,30.38,West,277,2.0,3.0,7,0.00,,---,0.00,VWS V14.01,2013-02-07 18:19:00,
2013-02-07 13:22:00,30.1,-26.6,30.38,WNW,298,1.0,3.0,7,0.00,,---,0.00,VWS V14.01,2013-02-07 18:22:00,
2013-02-07 13:24:00,30.3,-26.5,30.38,WNW,298,0.0,3.0,7,0.00,,---,0.00,VWS V14.01,2013-02-07 18:24:00,
2013-02-07 13:27:00,30.7,-26.2,30.38,WNW,298,0.0,3.0,7,0.00,,---,0.00,VWS V14.01,2013-02-07 18:27:00,
2013-02-07 13:29:00,31.3,-25.7,30.38,WNW,298,0.0,3.0,7,0.00,,---,0.00,VWS V14.01,2013-02-07 18:29:00,
2013-02-07 13:32:00,31.3,-25.7,30.37,NE,54,2.0,4.0,7,0.00,,---,0.00,VWS V14.01,2013-02-07 18:32:00,
2013-02-07 13:34:00,31.2,-25.8,30.37,NNE,13,0.0,4.0,7,0.00,,---,0.00,VWS V14.01,2013-02-07 18:34:00,
2013-02-07 13:35:00,31.2,-28.6,30.37,NNE,13,1.0,4.0,6,0.00,,---,0.00,VWS V14.01,2013-02-07 18:35:00,
2013-02-07 13:37:00,31.0,-26.0,30.37,NNE,13,0.0,4.0,7,0.00,,---,0.00,VWS V14.01,2013-02-07 18:37:00,
2013-02-07 13:39:00,31.0,-26.0,30.37,NNW,346,1.0,4.0,7,0.00,,---,0.00,VWS V14.01,2013-02-07 18:39:00,
2013-02-07 13:40:00,31.0,-28.8,30.37,NNW,346,0.0,4.0,6,0.00,,---,0.00,VWS V14.01,2013-02-07 18:40:00,
2013-02-07 13:42:00,31.2,-25.8,30.37,NNW,346,0.0,4.0,7,0.00,,---,0.00,VWS V14.01,2013-02-07 18:42:00,
2013-02-07 13:44:00,31.3,-25.7,30.37,NNE,14,2.0,4.0,7,0.00,,---,0.00,VWS V14.01,2013-02-07 18:44:00,
2013-02-07 13:45:00,31.3,-25.7,30.37,NNE,14,0.0,4.0,7,0.00,,---,0.00,VWS V14.01,2013-02-07 18:45:00,
2013-02-07 13:47:00,31.5,-25.6,30.37,NNE,17,0.0,1.0,7,0.00,,---,0.00,VWS V14.01,2013-02-07 18:47:00,
2013-02-07 13:48:00,31.5,-23.1,30.37,NNE,17,0.0,1.0,8,0.00,,---,0.00,VWS V14.01,2013-02-07 18:48:00,
2013-02-07 13:49:00,31.5,-25.6,30.37,NNE,17,0.0,1.0,7,0.00,,---,0.00,VWS V14.01,2013-02-07 18:49:00,
2013-02-07 13:50:00,31.5,-25.6,30.37,NNE,17,1.0,1.0,7,0.00,,---,0.00,VWS V14.01,2013-02-07 18:50:00,
2013-02-07 13:52:00,31.8,-25.4,30.37,NNE,17,0.0,1.0,7,0.00,,---,0.00,VWS V14.01,2013-02-07 18:52:00,
2013-02-07 13:53:00,31.8,-25.4,30.37,NNE,17,0.0,1.0,7,0.00,,---,0.00,VWS V14.01,2013-02-07 18:53:00,
2013-02-07 13:54:00,31.9,-25.3,30.37,NNE,17,0.0,1.0,7,0.00,,---,0.00,VWS V14.01,2013-02-07 18:54:00,
2013-02-07 13:55:00,32.1,-25.1,30.37,NNE,17,1.0,1.0,7,0.00,,---,0.00,VWS V14.01,2013-02-07 18:55:00,
2013-02-07 13:58:00,32.4,-24.9,30.37,North,350,0.0,1.0,7,0.00,,---,0.00,VWS V14.01,2013-02-07 18:58:00,
2013-02-07 13:59:00,32.5,-24.8,30.37,North,359,0.0,1.0,7,0.00,,---,0.00,VWS V14.01,2013-02-07 18:59:00,
2013-02-07 14:01:00,32.7,-24.7,30.36,North,357,0.0,0.0,7,0.00,,---,0.00,VWS V14.01,2013-02-07 19:01:00,
2013-02-07 14:03:00,32.7,-27.5,30.36,NNE,28,2.0,2.0,6,0.00,,---,0.00,VWS V14.01,2013-02-07 19:03:00,
2013-02-07 14:04:00,32.4,-27.8,30.36,NNE,30,3.0,3.0,6,0.00,,---,0.00,VWS V14.01,2013-02-07 19:04:00,
2013-02-07 14:06:00,32.1,-25.1,30.36,NNE,30,1.0,3.0,7,0.00,,---,0.00,VWS V14.01,2013-02-07 19:06:00,
2013-02-07 14:08:00,31.8,-25.4,30.36,NNE,30,0.0,3.0,7,0.00,,---,0.00,VWS V14.01,2013-02-07 19:08:00,
2013-02-07 14:09:00,31.6,-25.5,30.36,NNE,31,0.0,3.0,7,0.00,,---,0.00,VWS V14.01,2013-02-07 19:09:00,
2013-02-07 14:11:00,31.6,-25.5,30.36,NNE,31,0.0,3.0,7,0.00,,---,0.00,VWS V14.01,2013-02-07 19:11:00,
2013-02-07 14:13:00,31.5,-25.6,30.36,ENE,76,3.0,3.0,7,0.00,,---,0.00,VWS V14.01,2013-02-07 19:13:00,
2013-02-07 14:15:00,31.3,-25.7,30.36,ENE,76,0.0,3.0,7,0.00,,---,0.00,VWS V14.01,2013-02-07 19:15:00,
2013-02-07 14:16:00,31.3,-23.2,30.36,ENE,76,0.0,0.0,8,0.00,,---,0.00,VWS V14.01,2013-02-07 19:16:00,
2013-02-07 14:18:00,31.3,-25.7,30.36,ENE,76,0.0,1.0,7,0.00,,---,0.00,VWS V14.01,2013-02-07 19:18:00,
2013-02-07 14:20:00,31.2,-25.8,30.36,ENE,76,0.0,1.0,7,0.00,,---,0.00,VWS V14.01,2013-02-07 19:20:00,
2013-02-07 14:21:00,31.2,-23.3,30.36,ENE,76,1.0,1.0,8,0.00,,---,0.00,VWS V14.01,2013-02-07 19:21:00,
2013-02-07 14:23:00,31.3,-23.2,30.36,ENE,76,0.0,1.0,8,0.00,,---,0.00,VWS V14.01,2013-02-07 19:23:00,
2013-02-07 14:25:00,31.3,-23.2,30.36,ENE,76,0.0,1.0,8,0.00,,---,0.00,VWS V14.01,2013-02-07 19:25:00,
2013-02-07 14:26:00,31.3,-23.2,30.36,ENE,76,0.0,1.0,8,0.00,,---,0.00,VWS V14.01,2013-02-07 19:26:00,
2013-02-07 14:28:00,31.3,-25.7,30.36,ENE,76,0.0,1.0,7,0.00,,---,0.00,VWS V14.01,2013-02-07 19:28:00,
2013-02-07 14:30:00,31.5,-23.1,30.36,ENE,76,0.0,1.0,8,0.00,,---,0.00,VWS V14.01,2013-02-07 19:30:00,
2013-02-07 14:31:00,31.5,-23.1,30.36,ENE,76,1.0,1.0,8,0.00,,---,0.00,VWS V14.01,2013-02-07 19:31:00,
2013-02-07 14:33:00,31.5,-25.6,30.36,ENE,76,0.0,3.0,7,0.00,,---,0.00,VWS V14.01,2013-02-07 19:33:00,
2013-02-07 14:35:00,31.5,-23.1,30.36,ENE,76,0.0,3.0,8,0.00,,---,0.00,VWS V14.01,2013-02-07 19:35:00,
2013-02-07 14:36:00,31.5,-25.6,30.36,ENE,76,0.0,3.0,7,0.00,,---,0.00,VWS V14.01,2013-02-07 19:36:00,
2013-02-07 14:38:00,31.6,-25.5,30.36,ENE,76,0.0,3.0,7,0.00,,---,0.00,VWS V14.01,2013-02-07 19:38:00,
2013-02-07 14:39:00,31.6,-25.5,30.36,ENE,76,1.0,3.0,7,0.00,,---,0.00,VWS V14.01,2013-02-07 19:39:00,
2013-02-07 14:40:00,31.5,-25.6,30.36,East,79,3.0,6.0,7,0.00,,---,0.00,VWS V14.01,2013-02-07 19:40:00,
2013-02-07 14:41:00,31.3,-25.7,30.36,ENE,59,0.0,6.0,7,0.00,,---,0.00,VWS V14.01,2013-02-07 19:41:00,
2013-02-07 14:43:00,31.3,-25.7,30.36,ENE,59,0.0,6.0,7,0.00,,---,0.00,VWS V14.01,2013-02-07 19:43:00,
2013-02-07 14:44:00,31.3,-25.7,30.36,ENE,58,0.0,6.0,7,0.00,,---,0.00,VWS V14.01,2013-02-07 19:44:00,
2013-02-07 14:45:00,31.5,-23.1,30.36,ENE,59,2.0,6.0,8,0.00,,---,0.00,VWS V14.01,2013-02-07 19:45:00,
2013-02-07 14:47:00,31.5,-23.1,30.36,ENE,59,1.0,3.0,8,0.00,,---,0.00,VWS V14.01,2013-02-07 19:47:00,
2013-02-07 14:48:00,31.5,-23.1,30.36,NE,56,0.0,3.0,8,0.00,,---,0.00,VWS V14.01,2013-02-07 19:48:00,
2013-02-07 14:49:00,31.5,-23.1,30.36,NE,56,0.0,3.0,8,0.00,,---,0.00,VWS V14.01,2013-02-07 19:49:00,
2013-02-07 14:50:00,31.5,-23.1,30.36,NE,56,0.0,3.0,8,0.00,,---,0.00,VWS V14.01,2013-02-07 19:50:00,
2013-02-07 14:52:00,31.5,-23.1,30.36,NE,56,0.0,3.0,8,0.00,,---,0.00,VWS V14.01,2013-02-07 19:52:00,
2013-02-07 14:53:00,31.5,-23.1,30.36,ENE,58,0.0,3.0,8,0.00,,---,0.00,VWS V14.01,2013-02-07 19:53:00,
2013-02-07 14:55:00,31.6,-25.5,30.36,ENE,58,0.0,3.0,7,0.00,,---,0.00,VWS V14.01,2013-02-07 19:55:00,
2013-02-07 14:57:00,31.8,-20.6,30.36,South,181,2.0,3.0,9,0.00,,---,0.00,VWS V14.01,2013-02-07 19:57:00,
2013-02-07 14:58:00,31.8,-18.6,30.36,South,174,0.0,3.0,10,0.00,,---,0.00,VWS V14.01,2013-02-07 19:58:00,
2013-02-07 15:00:00,31.8,-18.6,30.36,South,174,0.0,3.0,10,0.00,,---,0.00,VWS V14.01,2013-02-07 20:00:00,
2013-02-07 15:02:00,31.8,-18.6,30.36,South,174,2.0,3.0,10,0.00,,---,0.00,VWS V14.01,2013-02-07 20:02:00,
2013-02-07 15:03:00,31.6,-18.7,30.36,South,174,1.0,3.0,10,0.00,,---,0.00,VWS V14.01,2013-02-07 20:03:00,
2013-02-07 15:05:00,31.5,-18.8,30.36,South,174,0.0,3.0,10,0.00,,---,0.00,VWS V14.01,2013-02-07 20:05:00,
2013-02-07 15:07:00,31.5,-18.8,30.36,South,174,0.0,3.0,10,0.00,,---,0.00,VWS V14.01,2013-02-07 20:07:00,
2013-02-07 15:08:00,31.5,-18.8,30.36,South,174,2.0,3.0,10,0.00,,---,0.00,VWS V14.01,2013-02-07 20:08:00,
2013-02-07 15:10:00,31.5,-18.8,30.36,South,174,0.0,3.0,10,0.00,,---,0.00,VWS V14.01,2013-02-07 20:10:00,
2013-02-07 15:12:00,31.5,-18.8,30.36,South,174,0.0,3.0,10,0.00,,---,0.00,VWS V14.01,2013-02-07 20:12:00,
2013-02-07 15:14:00,31.5,-18.8,30.36,South,174,0.0,3.0,10,0.00,,---,0.00,VWS V14.01,2013-02-07 20:14:00,
2013-02-07 15:15:00,31.5,-18.8,30.36,South,174,0.0,3.0,10,0.00,,---,0.00,VWS V14.01,2013-02-07 20:15:00,
2013-02-07 15:17:00,31.5,-18.8,30.36,South,174,0.0,1.0,10,0.00,,---,0.00,VWS V14.01,2013-02-07 20:17:00,
2013-02-07 15:19:00,31.5,-20.8,30.36,South,174,0.0,1.0,9,0.00,,---,0.00,VWS V14.01,2013-02-07 20:19:00,
2013-02-07 15:20:00,31.5,-20.8,30.36,South,174,0.0,1.0,9,0.00,,---,0.00,VWS V14.01,2013-02-07 20:20:00,
2013-02-07 15:22:00,31.3,-21.0,30.36,South,174,0.0,1.0,9,0.00,,---,0.00,VWS V14.01,2013-02-07 20:22:00,
2013-02-07 15:24:00,31.3,-19.0,30.36,South,174,1.0,1.0,10,0.00,,---,0.00,VWS V14.01,2013-02-07 20:24:00,
2013-02-07 15:25:00,31.3,-19.0,30.36,South,174,0.0,1.0,10,0.00,,---,0.00,VWS V14.01,2013-02-07 20:25:00,
2013-02-07 15:26:00,31.3,-19.0,30.36,South,174,1.0,1.0,10,0.00,,---,0.00,VWS V14.01,2013-02-07 20:26:00,
2013-02-07 15:27:00,31.3,-19.0,30.36,SSE,155,2.0,5.0,10,0.00,,---,0.00,VWS V14.01,2013-02-07 20:27:00,
2013-02-07 15:29:00,31.2,-17.2,30.36,SSW,192,5.0,6.0,11,0.00,,---,0.00,VWS V14.01,2013-02-07 20:29:00,
2013-02-07 15:30:00,31.2,-17.2,30.36,South,189,3.0,6.0,11,0.00,,---,0.00,VWS V14.01,2013-02-07 20:30:00,
2013-02-07 15:31:00,31.0,-17.4,30.36,South,186,1.0,4.0,11,0.00,,---,0.00,VWS V14.01,2013-02-07 20:31:00,
2013-02-07 15:33:00,30.9,-15.7,30.36,South,179,0.0,4.0,12,0.00,,---,0.00,VWS V14.01,2013-02-07 20:33:00,
2013-02-07 15:35:00,30.7,-15.9,30.36,South,186,2.0,5.0,12,0.00,,---,0.00,VWS V14.01,2013-02-07 20:35:00,
2013-02-07 15:36:00,30.7,-15.9,30.36,South,181,3.0,5.0,12,0.00,,---,0.00,VWS V14.01,2013-02-07 20:36:00,
2013-02-07 15:38:00,30.9,-15.7,30.36,SSE,168,2.0,5.0,12,0.00,,---,0.00,VWS V14.01,2013-02-07 20:38:00,
2013-02-07 15:40:00,30.7,-17.6,30.36,SSE,167,5.0,5.0,11,0.00,,---,0.00,VWS V14.01,2013-02-07 20:40:00,
2013-02-07 15:41:00,30.7,-15.9,30.36,SSW,199,3.0,6.0,12,0.00,,---,0.00,VWS V14.01,2013-02-07 20:41:00,
2013-02-07 15:43:00,30.6,-17.7,30.36,South,174,4.0,6.0,11,0.00,,---,0.00,VWS V14.01,2013-02-07 20:43:00,
2013-02-07 15:45:00,30.4,-16.1,30.36,South,184,0.0,6.0,12,0.00,,---,0.00,VWS V14.01,2013-02-07 20:45:00,
2013-02-07 15:46:00,30.4,-16.1,30.36,South,184,0.0,0.0,12,0.00,,---,0.00,VWS V14.01,2013-02-07 20:46:00,
2013-02-07 15:48:00,30.4,-16.1,30.36,South,176,3.0,3.0,12,0.00,,---,0.00,VWS V14.01,2013-02-07 20:48:00,
2013-02-07 15:50:00,30.4,-16.1,30.36,SSE,164,0.0,6.0,12,0.00,,---,0.00,VWS V14.01,2013-02-07 20:50:00,
2013-02-07 15:51:00,30.4,-14.6,30.36,South,189,6.0,6.0,13,0.00,,---,0.00,VWS V14.01,2013-02-07 20:51:00,
2013-02-07 15:53:00,30.3,-14.6,30.36,SSW,209,1.0,6.0,13,0.00,,---,0.00,VWS V14.01,2013-02-07 20:53:00,
2013-02-07 15:55:00,30.3,-14.6,30.36,SSW,209,0.0,6.0,13,0.00,,---,0.00,VWS V14.01,2013-02-07 20:55:00,
2013-02-07 15:56:00,30.3,-14.6,30.36,South,169,3.0,6.0,13,0.00,,---,0.00,VWS V14.01,2013-02-07 20:56:00,
2013-02-07 15:58:00,30.3,-13.2,30.36,South,169,1.0,6.0,14,0.00,,---,0.00,VWS V14.01,2013-02-07 20:58:00,
2013-02-07 16:00:00,30.3,-13.2,30.36,South,169,1.0,6.0,14,0.00,,---,0.00,VWS V14.01,2013-02-07 21:00:00,
2013-02-07 16:01:00,30.3,-13.2,30.36,South,169,2.0,2.0,14,0.00,,---,0.00,VWS V14.01,2013-02-07 21:01:00,
2013-02-07 16:03:00,30.3,-13.2,30.36,SSE,164,0.0,5.0,14,0.00,,---,0.00,VWS V14.01,2013-02-07 21:03:00,
2013-02-07 16:05:00,30.3,-13.2,30.36,SSE,168,2.0,5.0,14,0.00,,---,0.00,VWS V14.01,2013-02-07 21:05:00,
2013-02-07 16:06:00,30.3,-14.6,30.36,South,174,2.0,5.0,13,0.00,,---,0.00,VWS V14.01,2013-02-07 21:06:00,
2013-02-07 16:08:00,30.1,-14.8,30.36,South,175,3.0,6.0,13,0.00,,---,0.00,VWS V14.01,2013-02-07 21:08:00,
2013-02-07 16:10:00,30.1,-13.3,30.36,South,182,0.0,6.0,14,0.00,,---,0.00,VWS V14.01,2013-02-07 21:10:00,
2013-02-07 16:11:00,30.1,-13.3,30.36,South,182,0.0,6.0,14,0.00,,---,0.00,VWS V14.01,2013-02-07 21:11:00,
2013-02-07 16:13:00,30.1,-13.3,30.36,South,182,2.0,6.0,14,0.00,,---,0.00,VWS V14.01,2013-02-07 21:13:00,
2013-02-07 16:16:00,30.1,-12.0,30.36,South,182,0.0,6.0,15,0.00,,---,0.00,VWS V14.01,2013-02-07 21:16:00,
2013-02-07 16:18:00,30.1,-13.3,30.36,South,182,0.0,2.0,14,0.00,,---,0.00,VWS V14.01,2013-02-07 21:18:00,
2013-02-07 16:21:00,30.3,-13.2,30.36,South,182,2.0,2.0,14,0.00,,---,0.00,VWS V14.01,2013-02-07 21:21:00,
2013-02-07 16:22:00,30.3,-13.2,30.36,South,179,3.0,5.0,14,0.00,,---,0.00,VWS V14.01,2013-02-07 21:22:00,
2013-02-07 16:23:00,30.1,-14.8,30.36,South,179,3.0,5.0,13,0.00,,---,0.00,VWS V14.01,2013-02-07 21:23:00,
2013-02-07 16:26:00,30.1,-13.3,30.36,South,179,0.0,5.0,14,0.00,,---,0.00,VWS V14.01,2013-02-07 21:26:00,
2013-02-07 16:27:00,30.1,-13.3,30.36,South,179,2.0,5.0,14,0.00,,---,0.00,VWS V14.01,2013-02-07 21:27:00,
2013-02-07 16:28:00,30.1,-13.3,30.36,South,181,7.0,7.0,14,0.00,,---,0.00,VWS V14.01,2013-02-07 21:28:00,
2013-02-07 16:31:00,30.0,-12.0,30.36,South,178,3.0,3.0,15,0.00,,---,0.00,VWS V14.01,2013-02-07 21:31:00,
2013-02-07 16:32:00,30.0,-12.0,30.36,SSE,168,5.0,6.0,15,0.00,,---,0.00,VWS V14.01,2013-02-07 21:32:00,
2013-02-07 16:33:00,30.0,-12.0,30.36,SSE,158,5.0,6.0,15,0.00,,---,0.00,VWS V14.01,2013-02-07 21:33:00,
2013-02-07 16:36:00,30.0,-12.0,30.36,South,176,2.0,6.0,15,0.00,,---,0.00,VWS V14.01,2013-02-07 21:36:00,
2013-02-07 16:37:00,30.0,-10.7,30.36,South,176,1.0,6.0,16,0.00,,---,0.00,VWS V14.01,2013-02-07 21:37:00,
2013-02-07 16:38:00,30.0,-10.7,30.36,South,176,2.0,6.0,16,0.00,,---,0.00,VWS V14.01,2013-02-07 21:38:00,
2013-02-07 16:41:00,30.0,-10.7,30.36,South,174,3.0,6.0,16,0.00,,---,0.00,VWS V14.01,2013-02-07 21:41:00,
2013-02-07 16:42:00,30.0,-10.7,30.36,South,171,3.0,6.0,16,0.00,,---,0.00,VWS V14.01,2013-02-07 21:42:00,
2013-02-07 16:43:00,30.0,-10.7,30.36,South,171,2.0,6.0,16,0.00,,---,0.00,VWS V14.01,2013-02-07 21:43:00,
2013-02-07 16:46:00,30.0,-10.7,30.36,South,171,2.0,2.0,16,0.00,,---,0.00,VWS V14.01,2013-02-07 21:46:00,
2013-02-07 16:47:00,30.0,-10.7,30.36,South,169,3.0,4.0,16,0.00,,---,0.00,VWS V14.01,2013-02-07 21:47:00,
2013-02-07 16:48:00,29.8,-10.9,30.36,South,169,0.0,4.0,16,0.00,,---,0.00,VWS V14.01,2013-02-07 21:48:00,
2013-02-07 16:51:00,29.8,-10.9,30.36,South,169,0.0,4.0,16,0.00,,---,0.00,VWS V14.01,2013-02-07 21:51:00,
2013-02-07 16:52:00,30.0,-9.5,30.36,South,169,0.0,4.0,17,0.00,,---,0.00,VWS V14.01,2013-02-07 21:52:00,
2013-02-07 16:54:00,30.0,-9.5,30.36,South,169,0.0,4.0,17,0.00,,---,0.00,VWS V14.01,2013-02-07 21:54:00,
2013-02-07 16:56:00,30.0,-9.5,30.36,South,169,0.0,4.0,17,0.00,,---,0.00,VWS V14.01,2013-02-07 21:56:00,
2013-02-07 16:57:00,30.0,-9.5,30.36,South,169,0.0,4.0,17,0.00,,---,0.00,VWS V14.01,2013-02-07 21:57:00,
2013-02-07 16:59:00,30.0,-8.4,30.36,South,169,2.0,4.0,18,0.00,,---,0.00,VWS V14.01,2013-02-07 21:59:00,
2013-02-07 17:01:00,30.0,-9.5,30.36,South,169,0.0,2.0,17,0.00,,---,0.00,VWS V14.01,2013-02-07 22:01:00,
2013-02-07 17:02:00,30.0,-9.5,30.36,South,169,0.0,2.0,17,0.00,,---,0.00,VWS V14.01,2013-02-07 22:02:00,
2013-02-07 17:04:00,29.8,-8.5,30.36,South,169,2.0,5.0,18,0.00,,---,0.00,VWS V14.01,2013-02-07 22:04:00,
2013-02-07 17:06:00,29.8,-8.5,30.36,South,169,0.0,5.0,18,0.00,,---,0.00,VWS V14.01,2013-02-07 22:06:00,
2013-02-07 17:07:00,29.8,-8.5,30.36,South,169,0.0,5.0,18,0.00,,---,0.00,VWS V14.01,2013-02-07 22:07:00,
2013-02-07 17:09:00,29.8,-8.5,30.36,South,169,1.0,5.0,18,0.00,,---,0.00,VWS V14.01,2013-02-07 22:09:00,
2013-02-07 17:11:00,29.8,-7.4,30.36,South,169,1.0,5.0,19,0.00,,---,0.00,VWS V14.01,2013-02-07 22:11:00,
2013-02-07 17:12:00,29.8,-7.4,30.36,South,169,1.0,5.0,19,0.00,,---,0.00,VWS V14.01,2013-02-07 22:12:00,
2013-02-07 17:14:00,29.8,-7.4,30.36,South,169,0.0,5.0,19,0.00,,---,0.00,VWS V14.01,2013-02-07 22:14:00,
2013-02-07 17:16:00,29.8,-7.4,30.36,South,169,0.0,0.0,19,0.00,,---,0.00,VWS V14.01,2013-02-07 22:16:00,
2013-02-07 17:17:00,29.8,-7.4,30.36,South,169,0.0,2.0,19,0.00,,---,0.00,VWS V14.01,2013-02-07 22:17:00,
2013-02-07 17:18:00,29.8,-6.4,30.36,South,169,1.0,3.0,20,0.00,,---,0.00,VWS V14.01,2013-02-07 22:18:00,
2013-02-07 17:19:00,29.8,-6.4,30.36,SSE,167,6.0,6.0,20,0.00,,---,0.00,VWS V14.01,2013-02-07 22:19:00,
2013-02-07 17:21:00,29.8,-6.4,30.36,SSE,165,4.0,6.0,20,0.00,,---,0.00,VWS V14.01,2013-02-07 22:21:00,
2013-02-07 17:22:00,29.8,-6.4,30.36,SSE,165,2.0,6.0,20,0.00,,---,0.00,VWS V14.01,2013-02-07 22:22:00,
2013-02-07 17:23:00,29.8,-5.4,30.36,SSE,165,1.0,6.0,21,0.00,,---,0.00,VWS V14.01,2013-02-07 22:23:00,
2013-02-07 17:24:00,29.8,-5.4,30.36,SSE,165,2.0,6.0,21,0.00,,---,0.00,VWS V14.01,2013-02-07 22:24:00,
2013-02-07 17:26:00,29.8,-5.4,30.36,SSE,165,1.0,6.0,21,0.00,,---,0.00,VWS V14.01,2013-02-07 22:26:00,
2013-02-07 17:27:00,29.7,-5.4,30.36,SSE,165,1.0,6.0,21,0.00,,---,0.00,VWS V14.01,2013-02-07 22:27:00,
2013-02-07 17:28:00,29.7,-5.4,30.36,SSE,165,0.0,6.0,21,0.00,,---,0.00,VWS V14.01,2013-02-07 22:28:00,
2013-02-07 17:29:00,29.7,-5.4,30.36,SSE,165,0.0,6.0,21,0.00,,---,0.00,VWS V14.01,2013-02-07 22:29:00,
2013-02-07 17:32:00,29.7,-5.4,30.35,SSE,165,0.0,2.0,21,0.00,,---,0.00,VWS V14.01,2013-02-07 22:32:00,
2013-02-07 17:33:00,29.7,-5.4,30.35,SSE,165,0.0,2.0,21,0.00,,---,0.00,VWS V14.01,2013-02-07 22:33:00,
2013-02-07 17:34:00,29.7,-5.4,30.35,SSE,165,2.0,2.0,21,0.00,,---,0.00,VWS V14.01,2013-02-07 22:34:00,
2013-02-07 17:37:00,29.7,-5.4,30.35,SSE,165,0.0,2.0,21,0.00,,---,0.00,VWS V14.01,2013-02-07 22:37:00,
2013-02-07 17:38:00,29.7,-5.4,30.35,SSE,165,0.0,2.0,21,0.00,,---,0.00,VWS V14.01,2013-02-07 22:38:00,
2013-02-07 17:40:00,29.7,-5.4,30.35,SSE,165,0.0,2.0,21,0.00,,---,0.00,VWS V14.01,2013-02-07 22:40:00,
2013-02-07 17:42:00,29.7,-4.5,30.35,SSE,165,0.0,3.0,22,0.00,,---,0.00,VWS V14.01,2013-02-07 22:42:00,
2013-02-07 17:44:00,29.7,-4.5,30.35,SSE,165,1.0,3.0,22,0.00,,---,0.00,VWS V14.01,2013-02-07 22:44:00,
2013-02-07 17:45:00,29.7,-4.5,30.35,SSE,165,0.0,3.0,22,0.00,,---,0.00,VWS V14.01,2013-02-07 22:45:00,
2013-02-07 17:47:00,29.7,-4.5,30.35,SSE,165,0.0,0.0,22,0.00,,---,0.00,VWS V14.01,2013-02-07 22:47:00,
2013-02-07 17:49:00,29.7,-4.5,30.35,SSE,165,1.0,1.0,22,0.00,,---,0.00,VWS V14.01,2013-02-07 22:49:00,
2013-02-07 17:50:00,29.7,-3.5,30.35,SSE,165,1.0,2.0,23,0.00,,---,0.00,VWS V14.01,2013-02-07 22:50:00,
2013-02-07 17:52:00,29.7,-3.5,30.35,SSE,157,4.0,4.0,23,0.00,,---,0.00,VWS V14.01,2013-02-07 22:52:00,
2013-02-07 17:53:00,29.7,-3.5,30.35,ESE,107,0.0,4.0,23,0.00,,---,0.00,VWS V14.01,2013-02-07 22:53:00,
2013-02-07 17:54:00,29.7,-3.5,30.35,ESE,107,1.0,4.0,23,0.00,,---,0.00,VWS V14.01,2013-02-07 22:54:00,
2013-02-07 17:55:00,29.7,-3.5,30.35,SE,144,0.0,4.0,23,0.00,,---,0.00,VWS V14.01,2013-02-07 22:55:00,
2013-02-07 17:57:00,29.8,-3.5,30.35,SE,138,0.0,4.0,23,0.00,,---,0.00,VWS V14.01,2013-02-07 22:57:00,
2013-02-07 17:58:00,29.8,-3.5,30.35,SE,138,0.0,4.0,23,0.00,,---,0.00,VWS V14.01,2013-02-07 22:58:00,
2013-02-07 17:59:00,29.7,-3.5,30.35,ESE,107,2.0,4.0,23,0.00,,---,0.00,VWS V14.01,2013-02-07 22:59:00,
2013-02-07 18:00:00,29.7,-3.5,30.36,SSE,161,3.0,4.0,23,0.00,,---,0.00,VWS V14.01,2013-02-07 23:00:00,
2013-02-07 18:02:00,29.8,-3.5,30.36,SSE,165,0.0,6.0,23,0.00,,---,0.00,VWS V14.01,2013-02-07 23:02:00,
2013-02-07 18:03:00,29.8,-3.5,30.36,SSE,161,1.0,6.0,23,0.00,,---,0.00,VWS V14.01,2013-02-07 23:03:00,
2013-02-07 18:04:00,29.8,-3.5,30.36,SSE,161,0.0,6.0,23,0.00,,---,0.00,VWS V14.01,2013-02-07 23:04:00,
2013-02-07 18:05:00,29.8,-3.5,30.36,SSE,154,0.0,6.0,23,0.00,,---,0.00,VWS V14.01,2013-02-07 23:05:00,
2013-02-07 18:07:00,29.8,-3.5,30.36,SSE,155,2.0,6.0,23,0.00,,---,0.00,VWS V14.01,2013-02-07 23:07:00,
2013-02-07 18:08:00,29.8,-3.5,30.36,SSE,154,1.0,6.0,23,0.00,,---,0.00,VWS V14.01,2013-02-07 23:08:00,
2013-02-07 18:09:00,29.8,-3.5,30.36,SSE,154,0.0,6.0,23,0.00,,---,0.00,VWS V14.01,2013-02-07 23:09:00,
2013-02-07 18:10:00,29.8,-3.5,30.36,SSE,154,0.0,6.0,23,0.00,,---,0.00,VWS V14.01,2013-02-07 23:10:00,
2013-02-07 18:12:00,29.8,-3.5,30.36,SSE,154,1.0,6.0,23,0.00,,---,0.00,VWS V14.01,2013-02-07 23:12:00,
2013-02-07 18:13:00,29.8,-3.5,30.36,SSE,154,0.0,6.0,23,0.00,,---,0.00,VWS V14.01,2013-02-07 23:13:00,
2013-02-07 18:14:00,29.8,-3.5,30.36,SSE,154,2.0,6.0,23,0.00,,---,0.00,VWS V14.01,2013-02-07 23:14:00,
2013-02-07 18:15:00,29.8,-2.6,30.37,SSE,154,0.0,6.0,24,0.00,,---,0.00,VWS V14.01,2013-02-07 23:15:00,
2013-02-07 18:17:00,29.8,-2.6,30.37,SSE,154,3.0,3.0,24,0.00,,---,0.00,VWS V14.01,2013-02-07 23:17:00,
2013-02-07 18:18:00,29.8,-2.6,30.37,SSE,154,0.0,3.0,24,0.00,,---,0.00,VWS V14.01,2013-02-07 23:18:00,
2013-02-07 18:19:00,29.8,-2.6,30.37,SSE,154,0.0,3.0,24,0.00,,---,0.00,VWS V14.01,2013-02-07 23:19:00,
2013-02-07 18:20:00,29.8,-2.6,30.37,SSE,154,0.0,3.0,24,0.00,,---,0.00,VWS V14.01,2013-02-07 23:20:00,
2013-02-07 18:23:00,29.8,-2.6,30.37,SSE,154,0.0,3.0,24,0.00,,---,0.00,VWS V14.01,2013-02-07 23:23:00,
2013-02-07 18:24:00,29.8,-2.6,30.37,SE,144,0.0,3.0,24,0.00,,---,0.00,VWS V14.01,2013-02-07 23:24:00,
2013-02-07 18:25:00,30.0,-3.3,30.37,SE,144,0.0,3.0,23,0.00,,---,0.00,VWS V14.01,2013-02-07 23:25:00,
2013-02-07 18:28:00,30.0,-4.2,30.37,SSE,148,0.0,3.0,22,0.00,,---,0.00,VWS V14.01,2013-02-07 23:28:00,
2013-02-07 18:29:00,30.0,-4.2,30.37,SE,145,0.0,3.0,22,0.00,,---,0.00,VWS V14.01,2013-02-07 23:29:00,
2013-02-07 18:30:00,30.0,-4.2,30.37,SE,145,0.0,3.0,22,0.00,,---,0.00,VWS V14.01,2013-02-07 23:30:00,
2013-02-07 18:33:00,30.0,-4.2,30.37,East,89,0.0,3.0,22,0.00,,---,0.00,VWS V14.01,2013-02-07 23:33:00,
2013-02-07 18:34:00,30.0,-4.2,30.37,East,90,1.0,3.0,22,0.00,,---,0.00,VWS V14.01,2013-02-07 23:34:00,
2013-02-07 18:35:00,30.0,-5.2,30.37,ESE,117,0.0,3.0,21,0.00,,---,0.00,VWS V14.01,2013-02-07 23:35:00,
2013-02-07 18:38:00,30.0,-4.2,30.37,ESE,123,1.0,3.0,22,0.00,,---,0.00,VWS V14.01,2013-02-07 23:38:00,
2013-02-07 18:39:00,30.0,-4.2,30.37,SSE,165,1.0,3.0,22,0.00,,---,0.00,VWS V14.01,2013-02-07 23:39:00,
2013-02-07 18:40:00,30.0,-4.2,30.37,SSE,157,2.0,3.0,22,0.00,,---,0.00,VWS V14.01,2013-02-07 23:40:00,
2013-02-07 18:41:00,30.0,-4.2,30.37,SSE,147,1.0,3.0,22,0.00,,---,0.00,VWS V14.01,2013-02-07 23:41:00,
2013-02-07 18:43:00,30.1,-4.1,30.37,SE,128,2.0,3.0,22,0.00,,---,0.00,VWS V14.01,2013-02-07 23:43:00,
2013-02-07 18:44:00,30.1,-4.1,30.37,SE,128,0.0,3.0,22,0.00,,---,0.00,VWS V14.01,2013-02-07 23:44:00,
2013-02-07 18:45:00,30.1,-4.1,30.37,SE,128,0.0,3.0,22,0.00,,---,0.00,VWS V14.01,2013-02-07 23:45:00,
2013-02-07 18:46:00,30.1,-4.1,30.37,SE,128,0.0,0.0,22,0.00,,---,0.00,VWS V14.01,2013-02-07 23:46:00,
2013-02-07 18:48:00,30.1,-4.1,30.37,SE,128,1.0,1.0,22,0.00,,---,0.00,VWS V14.01,2013-02-07 23:48:00,
2013-02-07 18:49:00,30.1,-3.2,30.37,SE,128,0.0,2.0,23,0.00,,---,0.00,VWS V14.01,2013-02-07 23:49:00,
2013-02-07 18:50:00,30.1,-3.2,30.37,SE,128,2.0,2.0,23,0.00,,---,0.00,VWS V14.01,2013-02-07 23:50:00,
2013-02-07 18:51:00,30.1,-4.1,30.37,SE,127,2.0,3.0,22,0.00,,---,0.00,VWS V14.01,2013-02-07 23:51:00,
2013-02-07 18:53:00,30.1,-3.2,30.37,SE,133,0.0,3.0,23,0.00,,---,0.00,VWS V14.01,2013-02-07 23:53:00,
2013-02-07 18:54:00,30.1,-3.2,30.37,SE,134,0.0,3.0,23,0.00,,---,0.00,VWS V14.01,2013-02-07 23:54:00,
2013-02-07 18:55:00,30.1,-3.2,30.37,SE,133,0.0,3.0,23,0.00,,---,0.00,VWS V14.01,2013-02-07 23:55:00,
2013-02-07 18:56:00,30.1,-3.2,30.37,SE,133,1.0,3.0,23,0.00,,---,0.00,VWS V14.01,2013-02-07 23:56:00,
2013-02-07 18:58:00,30.3,-3.0,30.37,SE,133,0.0,3.0,23,0.00,,---,0.00,VWS V14.01,2013-02-07 23:58:00,
2013-02-07 18:59:00,30.3,-3.0,30.37,SE,133,0.0,3.0,23,0.00,,---,0.00,VWS V14.01,2013-02-07 23:59:00,
2013-02-07 19:00:00,30.3,-4.0,30.37,ENE,76,0.0,3.0,22,0.00,,---,0.00,VWS V14.01,2013-02-08 00:00:00,
2013-02-07 19:01:00,30.1,-4.1,30.37,ENE,76,0.0,0.0,22,0.00,,---,0.00,VWS V14.01,2013-02-08 00:01:00,
2013-02-07 19:03:00,30.1,-3.2,30.37,ENE,65,2.0,2.0,23,0.00,,---,0.00,VWS V14.01,2013-02-08 00:03:00,
2013-02-07 19:05:00,30.1,-4.1,30.37,ESE,104,2.0,3.0,22,0.00,,---,0.00,VWS V14.01,2013-02-08 00:05:00,
2013-02-07 19:06:00,30.1,-5.1,30.37,NNE,27,0.0,3.0,21,0.00,,---,0.00,VWS V14.01,2013-02-08 00:06:00,
2013-02-07 19:08:00,30.0,-5.2,30.37,ENE,62,4.0,6.0,21,0.00,,---,0.00,VWS V14.01,2013-02-08 00:08:00,
2013-02-07 19:10:00,30.0,-6.2,30.37,ENE,64,4.0,6.0,20,0.00,,---,0.00,VWS V14.01,2013-02-08 00:10:00,
2013-02-07 19:11:00,30.0,-6.2,30.37,East,88,1.0,6.0,20,0.00,,---,0.00,VWS V14.01,2013-02-08 00:11:00,
2013-02-07 19:13:00,29.8,-6.4,30.37,ENE,65,2.0,6.0,20,0.00,,---,0.00,VWS V14.01,2013-02-08 00:13:00,
2013-02-07 19:15:00,29.8,-6.4,30.36,ENE,65,4.0,6.0,20,0.00,,---,0.00,VWS V14.01,2013-02-08 00:15:00,
2013-02-07 19:16:00,29.8,-7.4,30.36,ENE,76,2.0,3.0,19,0.00,,---,0.00,VWS V14.01,2013-02-08 00:16:00,
2013-02-07 19:19:00,29.8,-6.4,30.36,NE,35,0.0,3.0,20,0.00,,---,0.00,VWS V14.01,2013-02-08 00:19:00,
2013-02-07 19:20:00,29.8,-6.4,30.36,NE,35,0.0,3.0,20,0.00,,---,0.00,VWS V14.01,2013-02-08 00:20:00,
2013-02-07 19:21:00,29.8,-6.4,30.36,NE,35,0.0,3.0,20,0.00,,---,0.00,VWS V14.01,2013-02-08 00:21:00,
2013-02-07 19:24:00,29.7,-6.4,30.36,East,83,2.0,3.0,20,0.00,,---,0.00,VWS V14.01,2013-02-08 00:24:00,
2013-02-07 19:25:00,29.7,-6.4,30.36,East,85,0.0,3.0,20,0.00,,---,0.00,VWS V14.01,2013-02-08 00:25:00,
2013-02-07 19:26:00,29.7,-6.4,30.36,East,85,0.0,3.0,20,0.00,,---,0.00,VWS V14.01,2013-02-08 00:26:00,
2013-02-07 19:29:00,29.7,-7.5,30.36,East,85,0.0,3.0,19,0.00,,---,0.00,VWS V14.01,2013-02-08 00:29:00,
2013-02-07 19:30:00,29.7,-7.5,30.36,East,85,0.0,3.0,19,0.00,,---,0.00,VWS V14.01,2013-02-08 00:30:00,
2013-02-07 19:31:00,29.7,-7.5,30.36,East,85,0.0,0.0,19,0.00,,---,0.00,VWS V14.01,2013-02-08 00:31:00,
2013-02-07 19:34:00,29.5,-7.7,30.36,East,96,1.0,3.0,19,0.00,,---,0.00,VWS V14.01,2013-02-08 00:34:00,
2013-02-07 19:35:00,29.5,-7.7,30.36,East,96,0.0,3.0,19,0.00,,---,0.00,VWS V14.01,2013-02-08 00:35:00,
2013-02-07 19:36:00,29.5,-7.7,30.36,ESE,102,5.0,5.0,19,0.00,,---,0.00,VWS V14.01,2013-02-08 00:36:00,
2013-02-07 19:39:00,29.5,-7.7,30.36,ENE,64,0.0,6.0,19,0.00,,---,0.00,VWS V14.01,2013-02-08 00:39:00,
2013-02-07 19:40:00,29.4,-7.8,30.36,ENE,64,0.0,6.0,19,0.00,,---,0.00,VWS V14.01,2013-02-08 00:40:00,
2013-02-07 19:41:00,29.4,-7.8,30.36,ENE,64,0.0,6.0,19,0.00,,---,0.00,VWS V14.01,2013-02-08 00:41:00,
2013-02-07 19:44:00,29.4,-6.7,30.36,ENE,64,0.0,6.0,20,0.00,,---,0.00,VWS V14.01,2013-02-08 00:44:00,
2013-02-07 19:45:00,29.4,-6.7,30.36,ENE,64,0.0,6.0,20,0.00,,---,0.00,VWS V14.01,2013-02-08 00:45:00,
2013-02-07 19:46:00,29.4,-6.7,30.36,ENE,64,0.0,0.0,20,0.00,,---,0.00,VWS V14.01,2013-02-08 00:46:00,
2013-02-07 19:47:00,29.4,-6.7,30.36,ENE,64,0.0,0.0,20,0.00,,---,0.00,VWS V14.01,2013-02-08 00:47:00,
2013-02-07 19:50:00,29.4,-6.7,30.36,ENE,64,0.0,0.0,20,0.00,,---,0.00,VWS V14.01,2013-02-08 00:50:00,
2013-02-07 19:51:00,29.3,-6.8,30.36,ENE,64,0.0,0.0,20,0.00,,---,0.00,VWS V14.01,2013-02-08 00:51:00,
2013-02-07 19:52:00,29.3,-6.8,30.36,ENE,64,0.0,0.0,20,0.00,,---,0.00,VWS V14.01,2013-02-08 00:52:00,
2013-02-07 19:55:00,29.3,-6.8,30.36,NE,51,0.0,2.0,20,0.00,,---,0.00,VWS V14.01,2013-02-08 00:55:00,
2013-02-07 19:56:00,29.3,-6.8,30.36,NE,51,0.0,2.0,20,0.00,,---,0.00,VWS V14.01,2013-02-08 00:56:00,
2013-02-07 19:57:00,29.3,-6.8,30.36,NE,51,0.0,2.0,20,0.00,,---,0.00,VWS V14.01,2013-02-08 00:57:00,
2013-02-07 20:00:00,29.3,-5.8,30.37,NE,51,0.0,2.0,21,0.00,,---,0.00,VWS V14.01,2013-02-08 01:00:00,
2013-02-07 20:01:00,29.3,-5.8,30.37,NE,51,0.0,0.0,21,0.00,,---,0.00,VWS V14.01,2013-02-08 01:01:00,
2013-02-07 20:02:00,29.3,-5.8,30.37,NE,51,0.0,0.0,21,0.00,,---,0.00,VWS V14.01,2013-02-08 01:02:00,
2013-02-07 20:05:00,29.1,-5.9,30.37,NE,51,0.0,1.0,21,0.00,,---,0.00,VWS V14.01,2013-02-08 01:05:00,
2013-02-07 20:06:00,29.1,-5.9,30.37,NE,51,0.0,1.0,21,0.00,,---,0.00,VWS V14.01,2013-02-08 01:06:00,
2013-02-07 20:07:00,29.1,-5.9,30.37,NE,51,0.0,1.0,21,0.00,,---,0.00,VWS V14.01,2013-02-08 01:07:00,
2013-02-07 20:10:00,29.1,-5.9,30.37,NE,51,0.0,1.0,21,0.00,,---,0.00,VWS V14.01,2013-02-08 01:10:00,
2013-02-07 20:11:00,29.1,-5.9,30.37,NE,51,1.0,1.0,21,0.00,,---,0.00,VWS V14.01,2013-02-08 01:11:00,
2013-02-07 20:12:00,29.0,-6.0,30.37,NE,51,1.0,2.0,21,0.00,,---,0.00,VWS V14.01,2013-02-08 01:12:00,
2013-02-07 20:15:00,29.0,-6.0,30.36,ENE,59,0.0,3.0,21,0.00,,---,0.00,VWS V14.01,2013-02-08 01:15:00,
2013-02-07 20:16:00,29.1,-5.9,30.36,ENE,59,0.0,2.0,21,0.00,,---,0.00,VWS V14.01,2013-02-08 01:16:00,
2013-02-07 20:17:00,29.1,-5.9,30.36,ENE,59,1.0,2.0,21,0.00,,---,0.00,VWS V14.01,2013-02-08 01:17:00,
2013-02-07 20:20:00,29.1,-5.9,30.36,ENE,59,0.0,3.0,21,0.00,,---,0.00,VWS V14.01,2013-02-08 01:20:00,
2013-02-07 20:21:00,29.1,-5.9,30.36,ENE,59,0.0,3.0,21,0.00,,---,0.00,VWS V14.01,2013-02-08 01:21:00,
2013-02-07 20:22:00,29.0,-6.0,30.36,ENE,59,1.0,3.0,21,0.00,,---,0.00,VWS V14.01,2013-02-08 01:22:00,
2013-02-07 20:23:00,29.0,-6.0,30.36,ENE,59,0.0,3.0,21,0.00,,---,0.00,VWS V14.01,2013-02-08 01:23:00,
2013-02-07 20:25:00,29.0,-5.1,30.36,ENE,65,3.0,3.0,22,0.00,,---,0.00,VWS V14.01,2013-02-08 01:25:00,
2013-02-07 20:26:00,29.0,-6.0,30.36,East,79,2.0,3.0,21,0.00,,---,0.00,VWS V14.01,2013-02-08 01:26:00,
2013-02-07 20:27:00,29.0,-5.1,30.36,East,82,1.0,3.0,22,0.00,,---,0.00,VWS V14.01,2013-02-08 01:27:00,
2013-02-07 20:28:00,29.0,-5.1,30.36,East,82,1.0,3.0,22,0.00,,---,0.00,VWS V14.01,2013-02-08 01:28:00,
2013-02-07 20:31:00,29.0,-5.1,30.36,East,80,2.0,2.0,22,0.00,,---,0.00,VWS V14.01,2013-02-08 01:31:00,
2013-02-07 20:32:00,29.0,-5.1,30.36,East,86,1.0,2.0,22,0.00,,---,0.00,VWS V14.01,2013-02-08 01:32:00,
2013-02-07 20:33:00,29.0,-5.1,30.36,East,86,0.0,2.0,22,0.00,,---,0.00,VWS V14.01,2013-02-08 01:33:00,
2013-02-07 20:36:00,29.0,-5.1,30.36,East,86,0.0,2.0,22,0.00,,---,0.00,VWS V14.01,2013-02-08 01:36:00,
2013-02-07 20:37:00,29.0,-4.2,30.36,East,86,0.0,2.0,23,0.00,,---,0.00,VWS V14.01,2013-02-08 01:37:00,
2013-02-07 20:38:00,29.0,-4.2,30.36,East,86,0.0,2.0,23,0.00,,---,0.00,VWS V14.01,2013-02-08 01:38:00,
2013-02-07 20:41:00,28.8,-4.3,30.36,East,85,1.0,2.0,23,0.00,,---,0.00,VWS V14.01,2013-02-08 01:41:00,
2013-02-07 20:42:00,28.8,-4.3,30.36,East,85,2.0,2.0,23,0.00,,---,0.00,VWS V14.01,2013-02-08 01:42:00,
2013-02-07 20:43:00,28.8,-4.3,30.36,East,79,1.0,5.0,23,0.00,,---,0.00,VWS V14.01,2013-02-08 01:43:00,
2013-02-07 20:46:00,29.0,-4.2,30.36,East,85,0.0,2.0,23,0.00,,---,0.00,VWS V14.01,2013-02-08 01:46:00,
2013-02-07 20:47:00,29.0,-4.2,30.36,East,85,0.0,2.0,23,0.00,,---,0.00,VWS V14.01,2013-02-08 01:47:00,
2013-02-07 20:48:00,29.0,-4.2,30.36,East,85,2.0,2.0,23,0.00,,---,0.00,VWS V14.01,2013-02-08 01:48:00,
2013-02-07 20:51:00,28.8,-4.3,30.36,East,85,1.0,2.0,23,0.00,,---,0.00,VWS V14.01,2013-02-08 01:51:00,
2013-02-07 20:52:00,28.8,-4.3,30.36,East,85,1.0,2.0,23,0.00,,---,0.00,VWS V14.01,2013-02-08 01:52:00,
2013-02-07 20:53:00,28.8,-4.3,30.36,East,85,2.0,2.0,23,0.00,,---,0.00,VWS V14.01,2013-02-08 01:53:00,
2013-02-07 20:56:00,28.8,-3.4,30.36,East,85,0.0,2.0,24,0.00,,---,0.00,VWS V14.01,2013-02-08 01:56:00,
2013-02-07 20:57:00,28.8,-3.4,30.36,East,85,0.0,2.0,24,0.00,,---,0.00,VWS V14.01,2013-02-08 01:57:00,
2013-02-07 20:58:00,28.8,-3.4,30.36,East,85,0.0,2.0,24,0.00,,---,0.00,VWS V14.01,2013-02-08 01:58:00,
2013-02-07 21:01:00,28.8,-3.4,30.36,NE,48,6.0,6.0,24,0.00,,---,0.00,VWS V14.01,2013-02-08 02:01:00,
2013-02-07 21:02:00,28.8,-3.4,30.36,NE,48,2.0,6.0,24,0.00,,---,0.00,VWS V14.01,2013-02-08 02:02:00,
2013-02-07 21:03:00,28.8,-3.4,30.36,East,100,1.0,6.0,24,0.00,,---,0.00,VWS V14.01,2013-02-08 02:03:00,
2013-02-07 21:06:00,28.8,-3.4,30.36,East,82,0.0,6.0,24,0.00,,---,0.00,VWS V14.01,2013-02-08 02:06:00,
2013-02-07 21:07:00,28.8,-3.4,30.36,East,82,0.0,6.0,24,0.00,,---,0.00,VWS V14.01,2013-02-08 02:07:00,
2013-02-07 21:08:00,28.8,-3.4,30.36,ENE,78,2.0,6.0,24,0.00,,---,0.00,VWS V14.01,2013-02-08 02:08:00,
2013-02-07 21:11:00,28.7,-3.5,30.36,NE,51,0.0,6.0,24,0.00,,---,0.00,VWS V14.01,2013-02-08 02:11:00,
2013-02-07 21:12:00,28.7,-3.5,30.36,ENE,76,1.0,6.0,24,0.00,,---,0.00,VWS V14.01,2013-02-08 02:12:00,
2013-02-07 21:13:00,28.7,-3.5,30.36,ENE,62,0.0,6.0,24,0.00,,---,0.00,VWS V14.01,2013-02-08 02:13:00,
2013-02-07 21:16:00,28.7,-3.5,30.36,ENE,62,1.0,2.0,24,0.00,,---,0.00,VWS V14.01,2013-02-08 02:16:00,
2013-02-07 21:17:00,28.7,-3.5,30.36,ENE,62,1.0,2.0,24,0.00,,---,0.00,VWS V14.01,2013-02-08 02:17:00,
2013-02-07 21:18:00,28.7,-3.5,30.36,ENE,62,1.0,2.0,24,0.00,,---,0.00,VWS V14.01,2013-02-08 02:18:00,
2013-02-07 21:22:00,28.7,-4.4,30.36,ENE,62,0.0,3.0,23,0.00,,---,0.00,VWS V14.01,2013-02-08 02:22:00,
2013-02-07 21:23:00,28.7,-3.5,30.36,ENE,62,0.0,3.0,24,0.00,,---,0.00,VWS V14.01,2013-02-08 02:23:00,
2013-02-07 21:27:00,28.7,-3.5,30.36,ENE,62,0.0,3.0,24,0.00,,---,0.00,VWS V14.01,2013-02-08 02:27:00,
2013-02-07 21:28:00,28.7,-3.5,30.36,ENE,62,0.0,3.0,24,0.00,,---,0.00,VWS V14.01,2013-02-08 02:28:00,
2013-02-07 21:32:00,28.7,-4.4,30.36,ENE,62,1.0,2.0,23,0.00,,---,0.00,VWS V14.01,2013-02-08 02:32:00,
2013-02-07 21:33:00,28.7,-4.4,30.36,ENE,62,1.0,2.0,23,0.00,,---,0.00,VWS V14.01,2013-02-08 02:33:00,
2013-02-07 21:34:00,28.7,-4.4,30.36,ENE,62,0.0,2.0,23,0.00,,---,0.00,VWS V14.01,2013-02-08 02:34:00,
2013-02-07 21:37:00,28.5,-3.7,30.36,ENE,62,2.0,2.0,24,0.00,,---,0.00,VWS V14.01,2013-02-08 02:37:00,
2013-02-07 21:38:00,28.5,-3.7,30.36,ENE,62,2.0,2.0,24,0.00,,---,0.00,VWS V14.01,2013-02-08 02:38:00,
2013-02-07 21:39:00,28.5,-3.7,30.36,ENE,62,2.0,2.0,24,0.00,,---,0.00,VWS V14.01,2013-02-08 02:39:00,
2013-02-07 21:42:00,28.5,-3.7,30.36,ENE,62,0.0,2.0,24,0.00,,---,0.00,VWS V14.01,2013-02-08 02:42:00,
2013-02-07 21:43:00,28.4,-3.8,30.36,ENE,62,0.0,2.0,24,0.00,,---,0.00,VWS V14.01,2013-02-08 02:43:00,
2013-02-07 21:44:00,28.4,-3.8,30.36,ENE,62,0.0,2.0,24,0.00,,---,0.00,VWS V14.01,2013-02-08 02:44:00,
2013-02-07 21:47:00,28.5,-3.7,30.36,ENE,61,2.0,5.0,24,0.00,,---,0.00,VWS V14.01,2013-02-08 02:47:00,
2013-02-07 21:48:00,28.5,-3.7,30.36,ENE,61,0.0,5.0,24,0.00,,---,0.00,VWS V14.01,2013-02-08 02:48:00,
2013-02-07 21:49:00,28.5,-3.7,30.36,ENE,61,0.0,5.0,24,0.00,,---,0.00,VWS V14.01,2013-02-08 02:49:00,
2013-02-07 21:52:00,28.4,-3.8,30.36,ENE,61,0.0,5.0,24,0.00,,---,0.00,VWS V14.01,2013-02-08 02:52:00,
2013-02-07 21:53:00,28.4,-3.8,30.36,ENE,61,0.0,5.0,24,0.00,,---,0.00,VWS V14.01,2013-02-08 02:53:00,
2013-02-07 21:54:00,28.4,-3.8,30.36,ENE,61,0.0,5.0,24,0.00,,---,0.00,VWS V14.01,2013-02-08 02:54:00,
2013-02-07 21:57:00,28.4,-3.8,30.36,ENE,61,0.0,5.0,24,0.00,,---,0.00,VWS V14.01,2013-02-08 02:57:00,
2013-02-07 21:58:00,28.4,-3.8,30.36,ENE,61,0.0,5.0,24,0.00,,---,0.00,VWS V14.01,2013-02-08 02:58:00,
2013-02-07 21:59:00,28.4,-3.8,30.36,ENE,61,0.0,5.0,24,0.00,,---,0.00,VWS V14.01,2013-02-08 02:59:00,
2013-02-07 22:02:00,28.4,-3.8,30.36,ENE,61,0.0,2.0,24,0.00,,---,0.00,VWS V14.01,2013-02-08 03:02:00,
2013-02-07 22:03:00,28.4,-3.8,30.36,ENE,61,0.0,2.0,24,0.00,,---,0.00,VWS V14.01,2013-02-08 03:03:00,
2013-02-07 22:04:00,28.2,-4.0,30.36,ENE,61,5.0,5.0,24,0.00,,---,0.00,VWS V14.01,2013-02-08 03:04:00,
2013-02-07 22:07:00,28.2,-4.0,30.36,ENE,61,0.0,5.0,24,0.00,,---,0.00,VWS V14.01,2013-02-08 03:07:00,
2013-02-07 22:08:00,28.2,-3.1,30.36,ENE,61,0.0,5.0,25,0.00,,---,0.00,VWS V14.01,2013-02-08 03:08:00,
2013-02-07 22:09:00,28.2,-3.1,30.36,ENE,61,4.0,5.0,25,0.00,,---,0.00,VWS V14.01,2013-02-08 03:09:00,
2013-02-07 22:13:00,28.4,-2.1,30.36,ENE,61,2.0,5.0,26,0.00,,---,0.00,VWS V14.01,2013-02-08 03:13:00,
2013-02-07 22:14:00,28.4,-2.1,30.36,ENE,61,2.0,5.0,26,0.00,,---,0.00,VWS V14.01,2013-02-08 03:14:00,
2013-02-07 22:18:00,28.4,-1.3,30.36,East,79,0.0,6.0,27,0.00,,---,0.00,VWS V14.01,2013-02-08 03:18:00,
2013-02-07 22:19:00,28.4,-1.3,30.36,East,79,1.0,6.0,27,0.00,,---,0.00,VWS V14.01,2013-02-08 03:19:00,
2013-02-07 22:23:00,28.2,-1.5,30.36,East,82,0.0,6.0,27,0.00,,---,0.00,VWS V14.01,2013-02-08 03:23:00,
2013-02-07 22:24:00,28.2,-1.5,30.36,East,82,1.0,6.0,27,0.00,,---,0.00,VWS V14.01,2013-02-08 03:24:00,
2013-02-07 22:28:00,28.2,-0.7,30.36,East,82,2.0,6.0,28,0.00,,---,0.00,VWS V14.01,2013-02-08 03:28:00,
2013-02-07 22:29:00,28.2,-0.7,30.36,East,82,0.0,6.0,28,0.00,,---,0.00,VWS V14.01,2013-02-08 03:29:00,
2013-02-07 22:33:00,28.1,0.7,30.36,ENE,58,3.0,6.0,30,0.00,,---,0.00,VWS V14.01,2013-02-08 03:33:00,
2013-02-07 22:34:00,28.1,0.7,30.36,East,80,2.0,6.0,30,0.00,,---,0.00,VWS V14.01,2013-02-08 03:34:00,
2013-02-07 22:38:00,28.1,2.0,30.36,ENE,72,0.0,6.0,32,0.00,,---,0.00,VWS V14.01,2013-02-08 03:38:00,
2013-02-07 22:39:00,28.1,2.0,30.36,East,80,7.0,7.0,32,0.00,,---,0.00,VWS V14.01,2013-02-08 03:39:00,
2013-02-07 22:40:00,28.1,2.0,30.36,East,90,5.0,7.0,32,0.00,,---,0.00,VWS V14.01,2013-02-08 03:40:00,
2013-02-07 22:43:00,28.1,3.4,30.36,ENE,68,2.0,7.0,34,0.00,,---,0.00,VWS V14.01,2013-02-08 03:43:00,
2013-02-07 22:44:00,28.1,3.4,30.36,East,92,2.0,7.0,34,0.00,,---,0.00,VWS V14.01,2013-02-08 03:44:00,
2013-02-07 22:45:00,28.1,3.4,30.36,ENE,62,3.0,7.0,34,0.00,,---,0.00,VWS V14.01,2013-02-08 03:45:00,
2013-02-07 22:48:00,27.9,3.8,30.36,NE,45,1.0,4.0,35,0.00,,---,0.00,VWS V14.01,2013-02-08 03:48:00,
2013-02-07 22:49:00,27.9,4.4,30.36,NE,54,5.0,5.0,36,0.00,,---,0.00,VWS V14.01,2013-02-08 03:49:00,
2013-02-07 22:50:00,27.9,4.4,30.36,NE,49,2.0,5.0,36,0.00,,---,0.00,VWS V14.01,2013-02-08 03:50:00,
2013-02-07 22:53:00,27.9,4.4,30.36,NE,52,1.0,6.0,36,0.00,,---,0.00,VWS V14.01,2013-02-08 03:53:00,
2013-02-07 22:54:00,27.9,5.0,30.36,ENE,59,0.0,6.0,37,0.00,,---,0.00,VWS V14.01,2013-02-08 03:54:00,
2013-02-07 22:55:00,27.9,5.0,30.36,ENE,59,0.0,6.0,37,0.00,,---,0.00,VWS V14.01,2013-02-08 03:55:00,
2013-02-07 22:58:00,27.9,5.0,30.36,East,79,1.0,9.0,37,0.00,,---,0.00,VWS V14.01,2013-02-08 03:58:00,
2013-02-07 23:00:00,27.9,5.0,30.36,ENE,59,0.0,9.0,37,0.00,,---,0.00,VWS V14.01,2013-02-08 04:00:00,
2013-02-07 23:03:00,27.9,5.0,30.36,ENE,72,2.0,6.0,37,0.00,,---,0.00,VWS V14.01,2013-02-08 04:03:00,
2013-02-07 23:05:00,27.9,5.0,30.36,ENE,71,3.0,6.0,37,0.00,,---,0.00,VWS V14.01,2013-02-08 04:05:00,
2013-02-07 23:08:00,27.9,5.0,30.36,North,357,0.0,6.0,37,0.00,,---,0.00,VWS V14.01,2013-02-08 04:08:00,
2013-02-07 23:10:00,27.9,5.6,30.36,East,80,6.0,6.0,38,0.00,,---,0.00,VWS V14.01,2013-02-08 04:10:00,
2013-02-07 23:13:00,27.8,5.5,30.36,ENE,62,1.0,6.0,38,0.00,,---,0.00,VWS V14.01,2013-02-08 04:13:00,
2013-02-07 23:15:00,27.8,5.5,30.36,East,88,6.0,6.0,38,0.00,,---,0.00,VWS V14.01,2013-02-08 04:15:00,
2013-02-07 23:18:00,27.8,5.5,30.36,NE,48,0.0,7.0,38,0.00,,---,0.00,VWS V14.01,2013-02-08 04:18:00,
2013-02-07 23:20:00,27.8,5.5,30.36,SE,136,1.0,7.0,38,0.00,,---,0.00,VWS V14.01,2013-02-08 04:20:00,
2013-02-07 23:24:00,27.6,5.3,30.36,ENE,66,0.0,7.0,38,0.00,,---,0.00,VWS V14.01,2013-02-08 04:24:00,
2013-02-07 23:25:00,27.6,5.3,30.36,ENE,61,1.0,7.0,38,0.00,,---,0.00,VWS V14.01,2013-02-08 04:25:00,
2013-02-07 23:29:00,27.5,5.2,30.36,NE,48,1.0,7.0,38,0.00,,---,0.00,VWS V14.01,2013-02-08 04:29:00,
2013-02-07 23:30:00,27.5,5.2,30.35,ESE,110,5.0,7.0,38,0.00,,---,0.00,VWS V14.01,2013-02-08 04:30:00,
2013-02-07 23:34:00,27.3,5.1,30.35,ENE,65,6.0,8.0,38,0.00,,---,0.00,VWS V14.01,2013-02-08 04:34:00,
2013-02-07 23:35:00,27.3,5.1,30.35,ENE,59,3.0,8.0,38,0.00,,---,0.00,VWS V14.01,2013-02-08 04:35:00,
2013-02-07 23:39:00,27.2,4.4,30.35,NE,34,2.0,8.0,37,0.00,,---,0.00,VWS V14.01,2013-02-08 04:39:00,
2013-02-07 23:40:00,27.2,4.4,30.35,ENE,75,7.0,8.0,37,0.00,,---,0.00,VWS V14.01,2013-02-08 04:40:00,
2013-02-07 23:41:00,27.2,4.4,30.35,East,80,4.0,8.0,37,0.00,,---,0.00,VWS V14.01,2013-02-08 04:41:00,
2013-02-07 23:44:00,27.0,3.6,30.35,ENE,58,3.0,9.0,36,0.00,,---,0.00,VWS V14.01,2013-02-08 04:44:00,
2013-02-07 23:45:00,27.0,3.0,30.33,ENE,64,2.0,9.0,35,0.00,,---,0.00,VWS V14.01,2013-02-08 04:45:00,
2013-02-07 23:46:00,27.0,3.0,30.33,NE,49,3.0,3.0,35,0.00,,---,0.00,VWS V14.01,2013-02-08 04:46:00,
2013-02-07 23:49:00,26.9,2.9,30.33,NE,34,7.0,7.0,35,0.00,,---,0.00,VWS V14.01,2013-02-08 04:49:00,
2013-02-07 23:50:00,26.9,2.9,30.33,NNE,27,7.0,7.0,35,0.00,,---,0.00,VWS V14.01,2013-02-08 04:50:00,
2013-02-07 23:51:00,26.9,2.9,30.33,ENE,62,3.0,7.0,35,0.00,,---,0.00,VWS V14.01,2013-02-08 04:51:00,
2013-02-07 23:54:00,26.9,1.6,30.33,ESE,123,0.0,7.0,33,0.00,,---,0.00,VWS V14.01,2013-02-08 04:54:00,
2013-02-07 23:55:00,26.9,2.3,30.33,East,97,3.0,7.0,34,0.00,,---,0.00,VWS V14.01,2013-02-08 04:55:00,
2013-02-07 23:56:00,26.9,2.3,30.33,ENE,58,2.0,7.0,34,0.00,,---,0.00,VWS V14.01,2013-02-08 04:56:00,
2013-02-07 23:59:00,26.9,1.0,30.33,ENE,65,6.0,7.0,32,0.00,,---,0.00,VWS V14.01,2013-02-08 04:59:00,